Time,TemperatureF,DewpointF,PressureIn,WindDirection,WindDirectionDegrees,WindSpeedMPH,WindSpeedGustMPH,Humidity,HourlyPrecipIn,Conditions,Clouds,dailyrainin,SoftwareType,DateUTC
2013-01-06 00:00:00,42.7,29.0,30.27,SW,227,0.0,0.0,58,0.00,,,0.00,WeatherTracker,2013-01-06 05:00:00,
2013-01-06 00:05:00,42.6,28.9,30.27,SW,224,3.0,0.0,58,0.00,,,0.00,WeatherTracker,2013-01-06 05:05:00,
2013-01-06 00:06:00,42.7,28.5,30.27,SW,224,2.0,0.0,57,0.00,,,0.00,WeatherTracker,2013-01-06 05:06:00,
2013-01-06 00:10:00,42.7,29.0,30.27,SW,223,3.0,0.0,58,0.00,,,0.00,WeatherTracker,2013-01-06 05:10:00,
2013-01-06 00:11:00,42.7,28.5,30.27,SW,223,2.0,0.0,57,0.00,,,0.00,WeatherTracker,2013-01-06 05:11:00,
2013-01-06 00:12:00,42.8,28.6,30.27,SW,225,3.0,0.0,57,0.00,,,0.00,WeatherTracker,2013-01-06 05:12:00,
2013-01-06 00:16:00,42.8,28.6,30.27,SW,227,2.0,0.0,57,0.00,,,0.00,WeatherTracker,2013-01-06 05:16:00,
2013-01-06 00:17:00,42.9,28.7,30.27,SW,230,2.0,0.0,57,0.00,,,0.00,WeatherTracker,2013-01-06 05:17:00,
2013-01-06 00:18:00,42.9,29.2,30.27,SW,231,3.0,0.0,58,0.00,,,0.00,WeatherTracker,2013-01-06 05:18:00,
2013-01-06 00:21:00,42.8,29.1,30.27,SW,236,3.0,0.0,58,0.00,,,0.00,WeatherTracker,2013-01-06 05:21:00,
2013-01-06 00:22:00,42.8,29.1,30.27,WSW,237,3.0,0.0,58,0.00,,,0.00,WeatherTracker,2013-01-06 05:22:00,
2013-01-06 00:25:00,42.8,29.1,30.26,WSW,241,1.0,0.0,58,0.00,,,0.00,WeatherTracker,2013-01-06 05:25:00,
2013-01-06 00:27:00,42.8,29.5,30.26,WSW,241,1.0,0.0,59,0.00,,,0.00,WeatherTracker,2013-01-06 05:27:00,
2013-01-06 00:28:00,42.8,29.1,30.25,WSW,241,1.0,0.0,58,0.00,,,0.00,WeatherTracker,2013-01-06 05:28:00,
2013-01-06 00:30:00,42.8,29.5,30.25,WSW,240,1.0,0.0,59,0.00,,,0.00,WeatherTracker,2013-01-06 05:30:00,
2013-01-06 00:32:00,42.8,29.1,30.25,WSW,239,3.0,0.0,58,0.00,,,0.00,WeatherTracker,2013-01-06 05:32:00,
2013-01-06 00:33:00,42.8,29.1,30.25,WSW,239,1.0,0.0,58,0.00,,,0.00,WeatherTracker,2013-01-06 05:33:00,
2013-01-06 00:37:00,42.8,29.1,30.25,SW,232,2.0,0.0,58,0.00,,,0.00,WeatherTracker,2013-01-06 05:37:00,
2013-01-06 00:38:00,42.8,29.1,30.25,SW,232,1.0,0.0,58,0.00,,,0.00,WeatherTracker,2013-01-06 05:38:00,
2013-01-06 00:39:00,42.8,29.5,30.25,SW,232,2.0,0.0,59,0.00,,,0.00,WeatherTracker,2013-01-06 05:39:00,
2013-01-06 00:42:00,42.8,29.5,30.25,SW,230,2.0,0.0,59,0.00,,,0.00,WeatherTracker,2013-01-06 05:42:00,
2013-01-06 00:43:00,42.8,29.1,30.25,SW,229,1.0,0.0,58,0.00,,,0.00,WeatherTracker,2013-01-06 05:43:00,
2013-01-06 00:44:00,42.8,29.5,30.25,SW,229,1.0,0.0,59,0.00,,,0.00,WeatherTracker,2013-01-06 05:44:00,
2013-01-06 00:47:00,42.8,29.1,30.25,SW,236,2.0,0.0,58,0.00,,,0.00,WeatherTracker,2013-01-06 05:47:00,
2013-01-06 00:48:00,42.8,29.1,30.25,SW,235,3.0,0.0,58,0.00,,,0.00,WeatherTracker,2013-01-06 05:48:00,
2013-01-06 00:49:00,42.8,29.5,30.25,SW,235,2.0,0.0,59,0.00,,,0.00,WeatherTracker,2013-01-06 05:49:00,
2013-01-06 00:53:00,42.9,29.6,30.25,SW,235,0.0,0.0,59,0.00,,,0.00,WeatherTracker,2013-01-06 05:53:00,
2013-01-06 00:54:00,42.9,29.6,30.25,SW,235,1.0,0.0,59,0.00,,,0.00,WeatherTracker,2013-01-06 05:54:00,
2013-01-06 00:55:00,42.8,29.5,30.24,SW,235,1.0,0.0,59,0.00,,,0.00,WeatherTracker,2013-01-06 05:55:00,
2013-01-06 00:59:00,42.7,29.4,30.23,SSE,163,2.0,0.0,59,0.00,,,0.00,WeatherTracker,2013-01-06 05:59:00,
2013-01-06 01:00:00,42.8,29.9,30.23,SE,140,1.0,0.0,60,0.00,,,0.00,WeatherTracker,2013-01-06 06:00:00,
2013-01-06 01:04:00,42.7,29.8,30.23,SE,140,0.0,0.0,60,0.00,,,0.00,WeatherTracker,2013-01-06 06:04:00,
2013-01-06 01:05:00,42.7,29.8,30.23,SE,140,0.0,0.0,60,0.00,,,0.00,WeatherTracker,2013-01-06 06:05:00,
2013-01-06 01:06:00,42.7,29.8,30.23,SE,140,1.0,0.0,60,0.00,,,0.00,WeatherTracker,2013-01-06 06:06:00,
2013-01-06 01:10:00,42.7,29.8,30.23,SE,140,0.0,0.0,60,0.00,,,0.00,WeatherTracker,2013-01-06 06:10:00,
2013-01-06 01:13:00,42.7,29.4,30.23,SE,140,1.0,0.0,59,0.00,,,0.00,WeatherTracker,2013-01-06 06:13:00,
2013-01-06 01:15:00,42.7,29.8,30.23,SE,140,2.0,0.0,60,0.00,,,0.00,WeatherTracker,2013-01-06 06:15:00,
2013-01-06 01:16:00,42.7,29.8,30.23,SE,140,0.0,0.0,60,0.00,,,0.00,WeatherTracker,2013-01-06 06:16:00,
2013-01-06 01:18:00,42.7,30.2,30.23,SE,140,1.0,0.0,61,0.00,,,0.00,WeatherTracker,2013-01-06 06:18:00,
2013-01-06 01:20:00,42.6,29.7,30.23,SE,140,1.0,0.0,60,0.00,,,0.00,WeatherTracker,2013-01-06 06:20:00,
2013-01-06 01:21:00,42.6,29.7,30.23,SE,140,0.0,0.0,60,0.00,,,0.00,WeatherTracker,2013-01-06 06:21:00,
2013-01-06 01:23:00,42.6,30.1,30.23,SE,140,0.0,0.0,61,0.00,,,0.00,WeatherTracker,2013-01-06 06:23:00,
2013-01-06 01:25:00,42.5,29.6,30.23,SE,140,0.0,0.0,60,0.00,,,0.00,WeatherTracker,2013-01-06 06:25:00,
2013-01-06 01:27:00,42.5,29.6,30.23,SSE,155,2.0,0.0,60,0.00,,,0.00,WeatherTracker,2013-01-06 06:27:00,
2013-01-06 01:28:00,42.5,29.6,30.24,SSE,155,1.0,0.0,60,0.00,,,0.00,WeatherTracker,2013-01-06 06:28:00,
2013-01-06 01:29:00,42.5,29.6,30.24,SSE,155,0.0,0.0,60,0.00,,,0.00,WeatherTracker,2013-01-06 06:29:00,
2013-01-06 01:32:00,42.5,30.0,30.24,South,184,0.0,0.0,61,0.00,,,0.00,WeatherTracker,2013-01-06 06:32:00,
2013-01-06 01:33:00,42.5,29.6,30.24,South,184,2.0,0.0,60,0.00,,,0.00,WeatherTracker,2013-01-06 06:33:00,
2013-01-06 01:34:00,42.5,30.0,30.25,South,184,2.0,0.0,61,0.00,,,0.00,WeatherTracker,2013-01-06 06:34:00,
2013-01-06 01:37:00,42.4,29.9,30.24,South,184,1.0,0.0,61,0.00,,,0.00,WeatherTracker,2013-01-06 06:37:00,
2013-01-06 01:38:00,42.4,29.9,30.25,South,184,2.0,0.0,61,0.00,,,0.00,WeatherTracker,2013-01-06 06:38:00,
2013-01-06 01:39:00,42.4,29.9,30.25,South,185,2.0,0.0,61,0.00,,,0.00,WeatherTracker,2013-01-06 06:39:00,
2013-01-06 01:43:00,42.4,29.9,30.25,SSW,208,2.0,0.0,61,0.00,,,0.00,WeatherTracker,2013-01-06 06:43:00,
2013-01-06 01:44:00,42.4,29.9,30.25,SSW,208,1.0,0.0,61,0.00,,,0.00,WeatherTracker,2013-01-06 06:44:00,
2013-01-06 01:45:00,42.4,29.9,30.25,SSW,208,2.0,0.0,61,0.00,,,0.00,WeatherTracker,2013-01-06 06:45:00,
2013-01-06 01:48:00,42.4,29.9,30.25,West,259,2.0,0.0,61,0.00,,,0.00,WeatherTracker,2013-01-06 06:48:00,
2013-01-06 01:49:00,42.4,29.9,30.25,West,259,2.0,0.0,61,0.00,,,0.00,WeatherTracker,2013-01-06 06:49:00,
2013-01-06 01:50:00,42.4,30.3,30.25,West,259,0.0,0.0,62,0.00,,,0.00,WeatherTracker,2013-01-06 06:50:00,
2013-01-06 01:54:00,42.3,30.2,30.25,West,259,1.0,0.0,62,0.00,,,0.00,WeatherTracker,2013-01-06 06:54:00,
2013-01-06 01:55:00,42.2,30.1,30.25,West,259,1.0,0.0,62,0.00,,,0.00,WeatherTracker,2013-01-06 06:55:00,
2013-01-06 01:56:00,42.2,29.7,30.25,West,259,1.0,0.0,61,0.00,,,0.00,WeatherTracker,2013-01-06 06:56:00,
2013-01-06 01:59:00,42.2,30.1,30.25,West,259,2.0,0.0,62,0.00,,,0.00,WeatherTracker,2013-01-06 06:59:00,
2013-01-06 02:00:00,42.2,30.1,30.25,West,259,2.0,0.0,62,0.00,,,0.00,WeatherTracker,2013-01-06 07:00:00,
2013-01-06 02:01:00,42.2,30.1,30.25,West,259,1.0,0.0,62,0.00,,,0.00,WeatherTracker,2013-01-06 07:01:00,
2013-01-06 02:04:00,42.2,30.1,30.26,West,259,1.0,0.0,62,0.00,,,0.00,WeatherTracker,2013-01-06 07:04:00,
2013-01-06 02:05:00,42.2,30.5,30.26,West,259,1.0,0.0,63,0.00,,,0.00,WeatherTracker,2013-01-06 07:05:00,
2013-01-06 02:06:00,42.2,30.5,30.26,West,259,1.0,0.0,63,0.00,,,0.00,WeatherTracker,2013-01-06 07:06:00,
2013-01-06 02:09:00,42.2,30.5,30.25,WSW,246,0.0,0.0,63,0.00,,,0.00,WeatherTracker,2013-01-06 07:09:00,
2013-01-06 02:10:00,42.2,30.5,30.25,WSW,246,1.0,0.0,63,0.00,,,0.00,WeatherTracker,2013-01-06 07:10:00,
2013-01-06 02:11:00,42.2,30.5,30.25,WSW,246,0.0,0.0,63,0.00,,,0.00,WeatherTracker,2013-01-06 07:11:00,
2013-01-06 02:15:00,42.3,30.6,30.25,WSW,244,3.0,0.0,63,0.00,,,0.00,WeatherTracker,2013-01-06 07:15:00,
2013-01-06 02:16:00,42.3,30.6,30.25,WSW,242,2.0,0.0,63,0.00,,,0.00,WeatherTracker,2013-01-06 07:16:00,
2013-01-06 02:17:00,42.2,30.5,30.25,WSW,242,2.0,0.0,63,0.00,,,0.00,WeatherTracker,2013-01-06 07:17:00,
2013-01-06 02:20:00,42.2,30.5,30.26,SW,228,3.0,0.0,63,0.00,,,0.00,WeatherTracker,2013-01-06 07:20:00,
2013-01-06 02:21:00,42.3,30.6,30.26,SW,228,2.0,0.0,63,0.00,,,0.00,WeatherTracker,2013-01-06 07:21:00,
2013-01-06 02:22:00,42.2,30.5,30.26,SW,228,3.0,0.0,63,0.00,,,0.00,WeatherTracker,2013-01-06 07:22:00,
2013-01-06 02:25:00,42.2,30.5,30.26,SW,222,3.0,0.0,63,0.00,,,0.00,WeatherTracker,2013-01-06 07:25:00,
2013-01-06 02:26:00,42.2,30.9,30.26,SW,222,2.0,0.0,64,0.00,,,0.00,WeatherTracker,2013-01-06 07:26:00,
2013-01-06 02:27:00,42.2,30.9,30.26,SW,222,2.0,0.0,64,0.00,,,0.00,WeatherTracker,2013-01-06 07:27:00,
2013-01-06 02:30:00,42.2,30.9,30.26,SW,224,2.0,0.0,64,0.00,,,0.00,WeatherTracker,2013-01-06 07:30:00,
2013-01-06 02:31:00,42.2,30.9,30.26,SW,224,2.0,0.0,64,0.00,,,0.00,WeatherTracker,2013-01-06 07:31:00,
2013-01-06 02:32:00,42.2,30.9,30.26,SW,224,2.0,0.0,64,0.00,,,0.00,WeatherTracker,2013-01-06 07:32:00,
2013-01-06 02:36:00,42.0,30.7,30.26,SW,235,3.0,0.0,64,0.00,,,0.00,WeatherTracker,2013-01-06 07:36:00,
2013-01-06 02:37:00,42.0,30.7,30.26,SW,235,0.0,0.0,64,0.00,,,0.00,WeatherTracker,2013-01-06 07:37:00,
2013-01-06 02:38:00,42.0,30.7,30.26,SW,235,2.0,0.0,64,0.00,,,0.00,WeatherTracker,2013-01-06 07:38:00,
2013-01-06 02:42:00,42.0,30.7,30.26,SW,235,2.0,0.0,64,0.00,,,0.00,WeatherTracker,2013-01-06 07:42:00,
2013-01-06 02:43:00,42.0,30.7,30.26,SW,236,2.0,0.0,64,0.00,,,0.00,WeatherTracker,2013-01-06 07:43:00,
2013-01-06 02:44:00,42.0,30.7,30.26,SW,235,3.0,0.0,64,0.00,,,0.00,WeatherTracker,2013-01-06 07:44:00,
2013-01-06 02:47:00,41.9,31.0,30.26,SW,235,1.0,0.0,65,0.00,,,0.00,WeatherTracker,2013-01-06 07:47:00,
2013-01-06 02:48:00,41.9,31.0,30.26,SW,235,2.0,0.0,65,0.00,,,0.00,WeatherTracker,2013-01-06 07:48:00,
2013-01-06 02:49:00,41.9,31.4,30.26,SW,235,1.0,0.0,66,0.00,,,0.00,WeatherTracker,2013-01-06 07:49:00,
2013-01-06 02:52:00,41.8,31.3,30.26,SW,235,1.0,0.0,66,0.00,,,0.00,WeatherTracker,2013-01-06 07:52:00,
2013-01-06 02:53:00,41.7,31.2,30.26,SW,235,0.0,0.0,66,0.00,,,0.00,WeatherTracker,2013-01-06 07:53:00,
2013-01-06 02:54:00,41.7,31.2,30.25,SW,235,1.0,0.0,66,0.00,,,0.00,WeatherTracker,2013-01-06 07:54:00,
2013-01-06 02:58:00,41.6,31.5,30.25,SW,235,0.0,0.0,67,0.00,,,0.00,WeatherTracker,2013-01-06 07:58:00,
2013-01-06 02:59:00,41.5,31.7,30.25,SW,235,0.0,0.0,68,0.00,,,0.00,WeatherTracker,2013-01-06 07:59:00,
2013-01-06 03:00:00,41.5,31.7,30.25,SW,235,0.0,0.0,68,0.00,,,0.00,WeatherTracker,2013-01-06 08:00:00,
2013-01-06 03:04:00,41.4,31.6,30.25,SW,235,0.0,0.0,68,0.00,,,0.00,WeatherTracker,2013-01-06 08:04:00,
2013-01-06 03:05:00,41.4,31.6,30.25,SW,235,2.0,0.0,68,0.00,,,0.00,WeatherTracker,2013-01-06 08:05:00,
2013-01-06 03:09:00,41.3,31.9,30.26,SW,235,2.0,0.0,69,0.00,,,0.00,WeatherTracker,2013-01-06 08:09:00,
2013-01-06 03:10:00,41.3,31.9,30.26,SW,235,3.0,0.0,69,0.00,,,0.00,WeatherTracker,2013-01-06 08:10:00,
2013-01-06 03:11:00,41.3,31.9,30.26,SW,235,2.0,0.0,69,0.00,,,0.00,WeatherTracker,2013-01-06 08:11:00,
2013-01-06 03:14:00,41.1,32.1,30.25,SW,229,1.0,0.0,70,0.00,,,0.00,WeatherTracker,2013-01-06 08:14:00,
2013-01-06 03:15:00,41.1,32.1,30.25,SW,229,1.0,0.0,70,0.00,,,0.00,WeatherTracker,2013-01-06 08:15:00,
2013-01-06 03:16:00,41.1,32.1,30.25,SW,229,1.0,0.0,70,0.00,,,0.00,WeatherTracker,2013-01-06 08:16:00,
2013-01-06 03:20:00,41.1,32.1,30.25,SW,229,0.0,0.0,70,0.00,,,0.00,WeatherTracker,2013-01-06 08:20:00,
2013-01-06 03:22:00,41.0,32.3,30.25,SW,229,1.0,0.0,71,0.00,,,0.00,WeatherTracker,2013-01-06 08:22:00,
2013-01-06 03:25:00,40.9,32.2,30.25,SW,229,1.0,0.0,71,0.00,,,0.00,WeatherTracker,2013-01-06 08:25:00,
2013-01-06 03:26:00,40.9,32.2,30.25,SW,229,0.0,0.0,71,0.00,,,0.00,WeatherTracker,2013-01-06 08:26:00,
2013-01-06 03:28:00,40.9,32.2,30.25,SW,229,1.0,0.0,71,0.00,,,0.00,WeatherTracker,2013-01-06 08:28:00,
2013-01-06 03:30:00,40.9,32.2,30.25,SW,229,1.0,0.0,71,0.00,,,0.00,WeatherTracker,2013-01-06 08:30:00,
2013-01-06 03:31:00,40.9,32.2,30.25,SW,229,1.0,0.0,71,0.00,,,0.00,WeatherTracker,2013-01-06 08:31:00,
2013-01-06 03:33:00,40.9,32.6,30.24,SW,229,0.0,0.0,72,0.00,,,0.00,WeatherTracker,2013-01-06 08:33:00,
2013-01-06 03:35:00,40.8,32.5,30.24,SW,229,0.0,0.0,72,0.00,,,0.00,WeatherTracker,2013-01-06 08:35:00,
2013-01-06 03:36:00,40.8,32.5,30.24,SW,229,0.0,0.0,72,0.00,,,0.00,WeatherTracker,2013-01-06 08:36:00,
2013-01-06 03:38:00,40.8,32.5,30.24,SW,229,0.0,0.0,72,0.00,,,0.00,WeatherTracker,2013-01-06 08:38:00,
2013-01-06 03:41:00,40.8,32.8,30.24,SW,229,1.0,0.0,73,0.00,,,0.00,WeatherTracker,2013-01-06 08:41:00,
2013-01-06 03:43:00,40.7,32.7,30.24,SW,229,1.0,0.0,73,0.00,,,0.00,WeatherTracker,2013-01-06 08:43:00,
2013-01-06 03:44:00,40.7,32.7,30.24,SW,229,0.0,0.0,73,0.00,,,0.00,WeatherTracker,2013-01-06 08:44:00,
2013-01-06 03:46:00,40.7,32.7,30.24,SW,229,2.0,0.0,73,0.00,,,0.00,WeatherTracker,2013-01-06 08:46:00,
2013-01-06 03:49:00,40.7,33.1,30.23,SW,229,1.0,0.0,74,0.00,,,0.00,WeatherTracker,2013-01-06 08:49:00,
2013-01-06 03:50:00,40.6,33.3,30.24,SW,229,0.0,0.0,75,0.00,,,0.00,WeatherTracker,2013-01-06 08:50:00,
2013-01-06 03:51:00,40.6,33.3,30.23,SW,229,0.0,0.0,75,0.00,,,0.00,WeatherTracker,2013-01-06 08:51:00,
2013-01-06 03:52:00,40.6,33.6,30.23,SW,229,0.0,0.0,76,0.00,,,0.00,WeatherTracker,2013-01-06 08:52:00,
2013-01-06 03:54:00,40.5,33.2,30.24,SW,229,2.0,0.0,75,0.00,,,0.00,WeatherTracker,2013-01-06 08:54:00,
2013-01-06 03:57:00,40.5,33.5,30.24,SW,229,1.0,0.0,76,0.00,,,0.00,WeatherTracker,2013-01-06 08:57:00,
2013-01-06 03:58:00,40.5,33.5,30.23,SW,229,1.0,0.0,76,0.00,,,0.00,WeatherTracker,2013-01-06 08:58:00,
2013-01-06 03:59:00,40.5,33.2,30.23,SW,229,1.0,0.0,75,0.00,,,0.00,WeatherTracker,2013-01-06 08:59:00,
2013-01-06 04:02:00,40.6,33.3,30.23,SW,229,1.0,0.0,75,0.00,,,0.00,WeatherTracker,2013-01-06 09:02:00,
2013-01-06 04:03:00,40.6,33.3,30.24,SW,229,2.0,0.0,75,0.00,,,0.00,WeatherTracker,2013-01-06 09:03:00,
2013-01-06 04:05:00,40.6,33.3,30.23,SW,229,2.0,0.0,75,0.00,,,0.00,WeatherTracker,2013-01-06 09:05:00,
2013-01-06 04:07:00,40.7,33.4,30.23,SW,229,1.0,0.0,75,0.00,,,0.00,WeatherTracker,2013-01-06 09:07:00,
2013-01-06 04:08:00,40.7,33.4,30.22,SW,229,2.0,0.0,75,0.00,,,0.00,WeatherTracker,2013-01-06 09:08:00,
2013-01-06 04:09:00,40.7,33.4,30.22,SW,229,1.0,0.0,75,0.00,,,0.00,WeatherTracker,2013-01-06 09:09:00,
2013-01-06 04:10:00,40.7,33.4,30.22,SW,229,2.0,0.0,75,0.00,,,0.00,WeatherTracker,2013-01-06 09:10:00,
2013-01-06 04:12:00,40.8,33.5,30.23,SW,229,2.0,0.0,75,0.00,,,0.00,WeatherTracker,2013-01-06 09:12:00,
2013-01-06 04:13:00,40.8,33.2,30.22,SW,229,2.0,0.0,74,0.00,,,0.00,WeatherTracker,2013-01-06 09:13:00,
2013-01-06 04:14:00,40.9,33.3,30.22,SW,229,1.0,0.0,74,0.00,,,0.00,WeatherTracker,2013-01-06 09:14:00,
2013-01-06 04:15:00,40.9,33.3,30.22,SW,229,2.0,0.0,74,0.00,,,0.00,WeatherTracker,2013-01-06 09:15:00,
2013-01-06 04:18:00,41.0,33.4,30.22,SW,229,2.0,0.0,74,0.00,,,0.00,WeatherTracker,2013-01-06 09:18:00,
2013-01-06 04:19:00,41.0,33.4,30.22,SW,229,0.0,0.0,74,0.00,,,0.00,WeatherTracker,2013-01-06 09:19:00,
2013-01-06 04:20:00,41.0,33.4,30.22,SW,229,0.0,0.0,74,0.00,,,0.00,WeatherTracker,2013-01-06 09:20:00,
2013-01-06 04:23:00,41.0,33.4,30.22,SW,229,2.0,0.0,74,0.00,,,0.00,WeatherTracker,2013-01-06 09:23:00,
2013-01-06 04:24:00,41.0,33.4,30.22,SW,229,1.0,0.0,74,0.00,,,0.00,WeatherTracker,2013-01-06 09:24:00,
2013-01-06 04:25:00,41.0,33.4,30.22,SW,229,0.0,0.0,74,0.00,,,0.00,WeatherTracker,2013-01-06 09:25:00,
2013-01-06 04:29:00,41.0,33.4,30.21,SW,229,1.0,0.0,74,0.00,,,0.00,WeatherTracker,2013-01-06 09:29:00,
2013-01-06 04:30:00,41.0,33.4,30.21,SW,229,2.0,0.0,74,0.00,,,0.00,WeatherTracker,2013-01-06 09:30:00,
2013-01-06 04:31:00,41.0,33.4,30.21,SW,229,0.0,0.0,74,0.00,,,0.00,WeatherTracker,2013-01-06 09:31:00,
2013-01-06 04:34:00,41.0,33.4,30.21,SW,229,0.0,0.0,74,0.00,,,0.00,WeatherTracker,2013-01-06 09:34:00,
2013-01-06 04:35:00,41.0,33.4,30.21,SW,229,0.0,0.0,74,0.00,,,0.00,WeatherTracker,2013-01-06 09:35:00,
2013-01-06 04:37:00,41.0,33.7,30.21,SW,229,0.0,0.0,75,0.00,,,0.00,WeatherTracker,2013-01-06 09:37:00,
2013-01-06 04:40:00,41.0,33.4,30.21,SW,229,1.0,0.0,74,0.00,,,0.00,WeatherTracker,2013-01-06 09:40:00,
2013-01-06 04:41:00,41.1,34.1,30.21,SW,229,1.0,0.0,76,0.00,,,0.00,WeatherTracker,2013-01-06 09:41:00,
2013-01-06 04:42:00,41.2,33.9,30.21,SW,229,0.0,0.0,75,0.00,,,0.00,WeatherTracker,2013-01-06 09:42:00,
2013-01-06 04:45:00,41.2,33.9,30.20,SW,229,0.0,0.0,75,0.00,,,0.00,WeatherTracker,2013-01-06 09:45:00,
2013-01-06 04:46:00,41.1,33.8,30.20,SW,229,1.0,0.0,75,0.00,,,0.00,WeatherTracker,2013-01-06 09:46:00,
2013-01-06 04:47:00,41.1,33.8,30.20,SW,229,0.0,0.0,75,0.00,,,0.00,WeatherTracker,2013-01-06 09:47:00,
2013-01-06 04:50:00,41.1,33.8,30.20,SW,229,0.0,0.0,75,0.00,,,0.00,WeatherTracker,2013-01-06 09:50:00,
2013-01-06 04:51:00,41.1,33.8,30.20,SW,226,1.0,0.0,75,0.00,,,0.00,WeatherTracker,2013-01-06 09:51:00,
2013-01-06 04:53:00,41.1,33.5,30.20,SW,217,1.0,0.0,74,0.00,,,0.00,WeatherTracker,2013-01-06 09:53:00,
2013-01-06 04:55:00,41.1,33.5,30.20,SW,217,1.0,0.0,74,0.00,,,0.00,WeatherTracker,2013-01-06 09:55:00,
2013-01-06 04:56:00,41.1,33.1,30.20,SW,217,1.0,0.0,73,0.00,,,0.00,WeatherTracker,2013-01-06 09:56:00,
2013-01-06 04:58:00,41.1,33.5,30.20,SW,217,1.0,0.0,74,0.00,,,0.00,WeatherTracker,2013-01-06 09:58:00,
2013-01-06 05:00:00,41.1,33.8,30.20,SW,217,2.0,0.0,75,0.00,,,0.00,WeatherTracker,2013-01-06 10:00:00,
2013-01-06 05:01:00,41.1,33.5,30.20,SW,217,2.0,0.0,74,0.00,,,0.00,WeatherTracker,2013-01-06 10:01:00,
2013-01-06 05:02:00,41.1,33.1,30.20,SW,219,2.0,0.0,73,0.00,,,0.00,WeatherTracker,2013-01-06 10:02:00,
2013-01-06 05:03:00,41.1,33.1,30.20,SW,219,2.0,0.0,73,0.00,,,0.00,WeatherTracker,2013-01-06 10:03:00,
2013-01-06 05:06:00,41.2,33.2,30.20,SW,219,1.0,0.0,73,0.00,,,0.00,WeatherTracker,2013-01-06 10:06:00,
2013-01-06 05:07:00,41.2,33.2,30.19,SW,219,2.0,0.0,73,0.00,,,0.00,WeatherTracker,2013-01-06 10:07:00,
2013-01-06 05:09:00,41.2,33.2,30.20,SW,219,0.0,0.0,73,0.00,,,0.00,WeatherTracker,2013-01-06 10:09:00,
2013-01-06 05:11:00,41.2,33.2,30.20,SW,219,1.0,0.0,73,0.00,,,0.00,WeatherTracker,2013-01-06 10:11:00,
2013-01-06 05:13:00,41.2,33.2,30.20,SW,219,1.0,0.0,73,0.00,,,0.00,WeatherTracker,2013-01-06 10:13:00,
2013-01-06 05:14:00,41.2,33.6,30.20,SW,219,1.0,0.0,74,0.00,,,0.00,WeatherTracker,2013-01-06 10:14:00,
2013-01-06 05:18:00,41.2,33.6,30.20,SW,219,1.0,0.0,74,0.00,,,0.00,WeatherTracker,2013-01-06 10:18:00,
2013-01-06 05:20:00,41.2,33.6,30.20,SW,219,0.0,0.0,74,0.00,,,0.00,WeatherTracker,2013-01-06 10:20:00,
2013-01-06 05:23:00,41.2,33.6,30.20,SW,219,1.0,0.0,74,0.00,,,0.00,WeatherTracker,2013-01-06 10:23:00,
2013-01-06 05:24:00,41.3,33.3,30.20,SW,219,0.0,0.0,73,0.00,,,0.00,WeatherTracker,2013-01-06 10:24:00,
2013-01-06 05:25:00,41.2,33.6,30.20,SW,219,0.0,0.0,74,0.00,,,0.00,WeatherTracker,2013-01-06 10:25:00,
2013-01-06 05:29:00,41.3,33.6,30.20,SW,219,0.0,0.0,74,0.00,,,0.00,WeatherTracker,2013-01-06 10:29:00,
2013-01-06 05:31:00,41.3,33.6,30.20,SW,219,0.0,0.0,74,0.00,,,0.00,WeatherTracker,2013-01-06 10:31:00,
2013-01-06 05:34:00,41.3,33.6,30.20,SW,219,0.0,0.0,74,0.00,,,0.00,WeatherTracker,2013-01-06 10:34:00,
2013-01-06 05:35:00,41.3,34.0,30.20,SW,219,0.0,0.0,75,0.00,,,0.00,WeatherTracker,2013-01-06 10:35:00,
2013-01-06 05:36:00,41.2,33.6,30.20,SW,219,0.0,0.0,74,0.00,,,0.00,WeatherTracker,2013-01-06 10:36:00,
2013-01-06 05:39:00,41.2,33.6,30.20,SW,219,0.0,0.0,74,0.00,,,0.00,WeatherTracker,2013-01-06 10:39:00,
2013-01-06 05:40:00,41.2,33.6,30.20,SW,219,0.0,0.0,74,0.00,,,0.00,WeatherTracker,2013-01-06 10:40:00,
2013-01-06 05:41:00,41.2,33.6,30.20,SW,219,0.0,0.0,74,0.00,,,0.00,WeatherTracker,2013-01-06 10:41:00,
2013-01-06 05:45:00,41.1,33.5,30.19,SW,219,0.0,0.0,74,0.00,,,0.00,WeatherTracker,2013-01-06 10:45:00,
2013-01-06 05:46:00,41.1,33.8,30.20,SW,219,0.0,0.0,75,0.00,,,0.00,WeatherTracker,2013-01-06 10:46:00,
2013-01-06 05:47:00,41.1,33.8,30.20,SW,219,0.0,0.0,75,0.00,,,0.00,WeatherTracker,2013-01-06 10:47:00,
2013-01-06 05:50:00,41.1,33.8,30.19,SW,219,1.0,0.0,75,0.00,,,0.00,WeatherTracker,2013-01-06 10:50:00,
2013-01-06 05:52:00,41.1,33.8,30.19,SW,219,1.0,0.0,75,0.00,,,0.00,WeatherTracker,2013-01-06 10:52:00,
2013-01-06 05:53:00,41.1,33.8,30.19,SW,219,1.0,0.0,75,0.00,,,0.00,WeatherTracker,2013-01-06 10:53:00,
2013-01-06 05:55:00,40.9,33.9,30.18,SW,219,0.0,0.0,76,0.00,,,0.00,WeatherTracker,2013-01-06 10:55:00,
2013-01-06 05:58:00,40.9,33.9,30.19,SW,219,0.0,0.0,76,0.00,,,0.00,WeatherTracker,2013-01-06 10:58:00,
2013-01-06 05:59:00,40.9,33.6,30.19,SW,219,0.0,0.0,75,0.00,,,0.00,WeatherTracker,2013-01-06 10:59:00,
2013-01-06 06:01:00,40.9,33.6,30.19,SW,219,1.0,0.0,75,0.00,,,0.00,WeatherTracker,2013-01-06 11:01:00,
2013-01-06 06:04:00,40.8,33.5,30.20,SW,219,2.0,0.0,75,0.00,,,0.00,WeatherTracker,2013-01-06 11:04:00,
2013-01-06 06:06:00,40.8,33.8,30.20,SW,219,0.0,0.0,76,0.00,,,0.00,WeatherTracker,2013-01-06 11:06:00,
2013-01-06 06:09:00,40.7,33.7,30.20,SW,219,0.0,0.0,76,0.00,,,0.00,WeatherTracker,2013-01-06 11:09:00,
2013-01-06 06:10:00,40.7,33.7,30.20,SW,219,0.0,0.0,76,0.00,,,0.00,WeatherTracker,2013-01-06 11:10:00,
2013-01-06 06:12:00,40.7,33.7,30.20,SW,219,0.0,0.0,76,0.00,,,0.00,WeatherTracker,2013-01-06 11:12:00,
2013-01-06 06:14:00,40.7,33.4,30.21,SW,219,0.0,0.0,75,0.00,,,0.00,WeatherTracker,2013-01-06 11:14:00,
2013-01-06 06:15:00,40.7,33.4,30.21,SW,219,0.0,0.0,75,0.00,,,0.00,WeatherTracker,2013-01-06 11:15:00,
2013-01-06 06:16:00,40.7,33.4,30.21,SW,219,0.0,0.0,75,0.00,,,0.00,WeatherTracker,2013-01-06 11:16:00,
2013-01-06 06:17:00,40.7,33.4,30.21,SW,219,0.0,0.0,75,0.00,,,0.00,WeatherTracker,2013-01-06 11:17:00,
2013-01-06 06:19:00,40.7,33.4,30.21,SW,219,0.0,0.0,75,0.00,,,0.00,WeatherTracker,2013-01-06 11:19:00,
2013-01-06 06:21:00,40.7,33.4,30.21,SW,219,0.0,0.0,75,0.00,,,0.00,WeatherTracker,2013-01-06 11:21:00,
2013-01-06 06:22:00,40.7,33.4,30.21,SW,219,0.0,0.0,75,0.00,,,0.00,WeatherTracker,2013-01-06 11:22:00,
2013-01-06 06:24:00,40.6,33.6,30.21,SW,219,0.0,0.0,76,0.00,,,0.00,WeatherTracker,2013-01-06 11:24:00,
2013-01-06 06:26:00,40.6,33.6,30.21,SW,219,1.0,0.0,76,0.00,,,0.00,WeatherTracker,2013-01-06 11:26:00,
2013-01-06 06:27:00,40.5,33.5,30.21,SW,219,1.0,0.0,76,0.00,,,0.00,WeatherTracker,2013-01-06 11:27:00,
2013-01-06 06:28:00,40.5,33.5,30.21,SW,219,0.0,0.0,76,0.00,,,0.00,WeatherTracker,2013-01-06 11:28:00,
2013-01-06 06:29:00,40.5,33.5,30.21,SW,219,1.0,0.0,76,0.00,,,0.00,WeatherTracker,2013-01-06 11:29:00,
2013-01-06 06:32:00,40.5,33.5,30.21,SW,219,1.0,0.0,76,0.00,,,0.00,WeatherTracker,2013-01-06 11:32:00,
2013-01-06 06:33:00,40.5,33.5,30.21,SW,219,0.0,0.0,76,0.00,,,0.00,WeatherTracker,2013-01-06 11:33:00,
2013-01-06 06:35:00,40.5,33.5,30.21,SW,219,0.0,0.0,76,0.00,,,0.00,WeatherTracker,2013-01-06 11:35:00,
2013-01-06 06:37:00,40.4,33.4,30.21,SW,219,0.0,0.0,76,0.00,,,0.00,WeatherTracker,2013-01-06 11:37:00,
2013-01-06 06:38:00,40.4,33.8,30.21,SW,219,0.0,0.0,77,0.00,,,0.00,WeatherTracker,2013-01-06 11:38:00,
2013-01-06 06:40:00,40.4,33.8,30.21,SW,219,0.0,0.0,77,0.00,,,0.00,WeatherTracker,2013-01-06 11:40:00,
2013-01-06 06:42:00,40.2,33.6,30.21,SW,219,0.0,0.0,77,0.00,,,0.00,WeatherTracker,2013-01-06 11:42:00,
2013-01-06 06:43:00,40.2,34.2,30.21,SW,219,0.0,0.0,79,0.00,,,0.00,WeatherTracker,2013-01-06 11:43:00,
2013-01-06 06:44:00,40.2,34.2,30.21,SW,219,0.0,0.0,79,0.00,,,0.00,WeatherTracker,2013-01-06 11:44:00,
2013-01-06 06:45:00,40.1,33.8,30.21,SW,219,0.0,0.0,78,0.00,,,0.00,WeatherTracker,2013-01-06 11:45:00,
2013-01-06 06:48:00,40.1,33.8,30.20,SW,219,0.0,0.0,78,0.00,,,0.00,WeatherTracker,2013-01-06 11:48:00,
2013-01-06 06:49:00,40.0,34.0,30.21,SW,219,0.0,0.0,79,0.00,,,0.00,WeatherTracker,2013-01-06 11:49:00,
2013-01-06 06:50:00,40.0,34.0,30.21,SW,219,0.0,0.0,79,0.00,,,0.00,WeatherTracker,2013-01-06 11:50:00,
2013-01-06 06:53:00,40.0,34.0,30.21,SW,219,0.0,0.0,79,0.00,,,0.00,WeatherTracker,2013-01-06 11:53:00,
2013-01-06 06:55:00,39.9,33.9,30.21,SW,219,1.0,0.0,79,0.00,,,0.00,WeatherTracker,2013-01-06 11:55:00,
2013-01-06 06:58:00,39.8,34.1,30.21,SW,219,0.0,0.0,80,0.00,,,0.00,WeatherTracker,2013-01-06 11:58:00,
2013-01-06 07:00:00,39.7,34.4,30.21,SW,219,0.0,0.0,81,0.00,,,0.00,WeatherTracker,2013-01-06 12:00:00,
2013-01-06 07:01:00,39.6,34.3,30.21,SW,219,0.0,0.0,81,0.00,,,0.00,WeatherTracker,2013-01-06 12:01:00,
2013-01-06 07:03:00,39.6,33.9,30.21,SW,219,0.0,0.0,80,0.00,,,0.00,WeatherTracker,2013-01-06 12:03:00,
2013-01-06 07:05:00,39.5,33.9,30.21,SW,219,0.0,0.0,80,0.00,,,0.00,WeatherTracker,2013-01-06 12:05:00,
2013-01-06 07:07:00,39.5,33.9,30.21,SW,219,0.0,0.0,80,0.00,,,0.00,WeatherTracker,2013-01-06 12:07:00,
2013-01-06 07:10:00,39.6,33.6,30.21,SW,219,0.0,0.0,79,0.00,,,0.00,WeatherTracker,2013-01-06 12:10:00,
2013-01-06 07:11:00,39.6,33.6,30.21,SW,219,0.0,0.0,79,0.00,,,0.00,WeatherTracker,2013-01-06 12:11:00,
2013-01-06 07:12:00,39.6,33.9,30.21,SW,219,0.0,0.0,80,0.00,,,0.00,WeatherTracker,2013-01-06 12:12:00,
2013-01-06 07:15:00,39.5,33.9,30.21,SW,219,0.0,0.0,80,0.00,,,0.00,WeatherTracker,2013-01-06 12:15:00,
2013-01-06 07:16:00,39.5,33.9,30.21,SW,219,0.0,0.0,80,0.00,,,0.00,WeatherTracker,2013-01-06 12:16:00,
2013-01-06 07:17:00,39.5,34.2,30.21,SW,219,0.0,0.0,81,0.00,,,0.00,WeatherTracker,2013-01-06 12:17:00,
2013-01-06 07:21:00,39.5,34.2,30.21,SW,219,0.0,0.0,81,0.00,,,0.00,WeatherTracker,2013-01-06 12:21:00,
2013-01-06 07:22:00,39.5,33.9,30.21,SW,219,0.0,0.0,80,0.00,,,0.00,WeatherTracker,2013-01-06 12:22:00,
2013-01-06 07:23:00,39.5,33.9,30.21,SW,219,0.0,0.0,80,0.00,,,0.00,WeatherTracker,2013-01-06 12:23:00,
2013-01-06 07:26:00,39.6,33.9,30.21,SW,219,0.0,0.0,80,0.00,,,0.00,WeatherTracker,2013-01-06 12:26:00,
2013-01-06 07:27:00,39.6,33.9,30.21,SW,219,0.0,0.0,80,0.00,,,0.00,WeatherTracker,2013-01-06 12:27:00,
2013-01-06 07:28:00,39.7,34.4,30.20,SW,219,0.0,0.0,81,0.00,,,0.00,WeatherTracker,2013-01-06 12:28:00,
2013-01-06 07:32:00,39.9,33.9,30.21,SW,219,1.0,0.0,79,0.00,,,0.00,WeatherTracker,2013-01-06 12:32:00,
2013-01-06 07:33:00,39.9,33.9,30.21,SW,219,1.0,0.0,79,0.00,,,0.00,WeatherTracker,2013-01-06 12:33:00,
2013-01-06 07:37:00,40.0,34.3,30.21,SW,219,0.0,0.0,80,0.00,,,0.00,WeatherTracker,2013-01-06 12:37:00,
2013-01-06 07:38:00,40.0,34.3,30.21,SW,219,1.0,0.0,80,0.00,,,0.00,WeatherTracker,2013-01-06 12:38:00,
2013-01-06 07:39:00,40.0,34.3,30.21,SW,219,0.0,0.0,80,0.00,,,0.00,WeatherTracker,2013-01-06 12:39:00,
2013-01-06 07:43:00,39.9,34.6,30.21,SW,219,0.0,0.0,81,0.00,,,0.00,WeatherTracker,2013-01-06 12:43:00,
2013-01-06 07:44:00,40.0,34.6,30.21,SW,219,0.0,0.0,81,0.00,,,0.00,WeatherTracker,2013-01-06 12:44:00,
2013-01-06 07:45:00,39.9,34.2,30.21,SW,219,0.0,0.0,80,0.00,,,0.00,WeatherTracker,2013-01-06 12:45:00,
2013-01-06 07:48:00,40.0,34.6,30.21,SW,219,0.0,0.0,81,0.00,,,0.00,WeatherTracker,2013-01-06 12:48:00,
2013-01-06 07:49:00,40.0,34.6,30.21,SW,219,0.0,0.0,81,0.00,,,0.00,WeatherTracker,2013-01-06 12:49:00,
2013-01-06 07:50:00,40.0,34.6,30.21,SW,219,1.0,0.0,81,0.00,,,0.00,WeatherTracker,2013-01-06 12:50:00,
2013-01-06 07:53:00,40.1,34.4,30.21,SW,219,0.0,0.0,80,0.00,,,0.00,WeatherTracker,2013-01-06 12:53:00,
2013-01-06 07:55:00,40.2,34.5,30.21,SW,219,1.0,0.0,80,0.00,,,0.00,WeatherTracker,2013-01-06 12:55:00,
2013-01-06 07:56:00,40.2,34.2,30.21,SW,219,2.0,0.0,79,0.00,,,0.00,WeatherTracker,2013-01-06 12:56:00,
2013-01-06 07:58:00,40.2,34.8,30.21,SW,219,1.0,0.0,81,0.00,,,0.00,WeatherTracker,2013-01-06 12:58:00,
2013-01-06 08:01:00,40.2,34.5,30.21,SW,219,0.0,0.0,80,0.00,,,0.00,WeatherTracker,2013-01-06 13:01:00,
2013-01-06 08:03:00,40.3,34.6,30.21,SW,219,0.0,0.0,80,0.00,,,0.00,WeatherTracker,2013-01-06 13:03:00,
2013-01-06 08:06:00,40.4,34.7,30.20,SW,219,0.0,0.0,80,0.00,,,0.00,WeatherTracker,2013-01-06 13:06:00,
2013-01-06 08:07:00,40.4,34.7,30.20,SW,219,0.0,0.0,80,0.00,,,0.00,WeatherTracker,2013-01-06 13:07:00,
2013-01-06 08:08:00,40.4,35.0,30.20,SW,219,0.0,0.0,81,0.00,,,0.00,WeatherTracker,2013-01-06 13:08:00,
2013-01-06 08:11:00,40.4,34.7,30.21,SW,219,2.0,0.0,80,0.00,,,0.00,WeatherTracker,2013-01-06 13:11:00,
2013-01-06 08:12:00,40.4,34.4,30.21,SW,219,1.0,0.0,79,0.00,,,0.00,WeatherTracker,2013-01-06 13:12:00,
2013-01-06 08:13:00,40.4,34.4,30.21,SW,219,1.0,0.0,79,0.00,,,0.00,WeatherTracker,2013-01-06 13:13:00,
2013-01-06 08:16:00,40.5,35.1,30.21,SW,219,0.0,0.0,81,0.00,,,0.00,WeatherTracker,2013-01-06 13:16:00,
2013-01-06 08:17:00,40.5,34.8,30.21,SW,219,1.0,0.0,80,0.00,,,0.00,WeatherTracker,2013-01-06 13:17:00,
2013-01-06 08:20:00,40.6,34.9,30.20,SW,219,0.0,0.0,80,0.00,,,0.00,WeatherTracker,2013-01-06 13:20:00,
2013-01-06 08:21:00,40.6,34.9,30.20,SW,219,0.0,0.0,80,0.00,,,0.00,WeatherTracker,2013-01-06 13:21:00,
2013-01-06 08:22:00,40.6,34.9,30.20,SW,219,0.0,0.0,80,0.00,,,0.00,WeatherTracker,2013-01-06 13:22:00,
2013-01-06 08:25:00,40.7,35.3,30.20,SW,219,0.0,0.0,81,0.00,,,0.00,WeatherTracker,2013-01-06 13:25:00,
2013-01-06 08:26:00,40.7,35.3,30.21,SW,219,0.0,0.0,81,0.00,,,0.00,WeatherTracker,2013-01-06 13:26:00,
2013-01-06 08:27:00,40.7,35.3,30.21,SW,219,1.0,0.0,81,0.00,,,0.00,WeatherTracker,2013-01-06 13:27:00,
2013-01-06 08:28:00,40.8,35.4,30.21,SW,219,1.0,0.0,81,0.00,,,0.00,WeatherTracker,2013-01-06 13:28:00,
2013-01-06 08:31:00,40.9,34.9,30.21,SW,219,1.0,0.0,79,0.00,,,0.00,WeatherTracker,2013-01-06 13:31:00,
2013-01-06 08:32:00,40.9,34.9,30.21,SW,219,0.0,0.0,79,0.00,,,0.00,WeatherTracker,2013-01-06 13:32:00,
2013-01-06 08:33:00,41.0,35.0,30.21,SW,219,0.0,0.0,79,0.00,,,0.00,WeatherTracker,2013-01-06 13:33:00,
2013-01-06 08:34:00,41.0,34.7,30.21,SW,219,0.0,0.0,78,0.00,,,0.00,WeatherTracker,2013-01-06 13:34:00,
2013-01-06 08:37:00,41.1,35.1,30.21,SW,219,0.0,0.0,79,0.00,,,0.00,WeatherTracker,2013-01-06 13:37:00,
2013-01-06 08:38:00,41.2,35.2,30.21,SW,219,0.0,0.0,79,0.00,,,0.00,WeatherTracker,2013-01-06 13:38:00,
2013-01-06 08:40:00,41.2,34.9,30.21,SW,219,0.0,0.0,78,0.00,,,0.00,WeatherTracker,2013-01-06 13:40:00,
2013-01-06 08:42:00,41.3,35.0,30.21,SW,219,0.0,0.0,78,0.00,,,0.00,WeatherTracker,2013-01-06 13:42:00,
2013-01-06 08:43:00,41.3,35.6,30.21,SW,219,0.0,0.0,80,0.00,,,0.00,WeatherTracker,2013-01-06 13:43:00,
2013-01-06 08:45:00,41.4,35.4,30.21,SW,219,0.0,0.0,79,0.00,,,0.00,WeatherTracker,2013-01-06 13:45:00,
2013-01-06 08:48:00,41.6,35.9,30.21,SW,219,0.0,0.0,80,0.00,,,0.00,WeatherTracker,2013-01-06 13:48:00,
2013-01-06 08:49:00,41.6,35.9,30.21,SW,219,0.0,0.0,80,0.00,,,0.00,WeatherTracker,2013-01-06 13:49:00,
2013-01-06 08:50:00,41.7,35.7,30.21,SW,219,0.0,0.0,79,0.00,,,0.00,WeatherTracker,2013-01-06 13:50:00,
2013-01-06 08:53:00,41.7,36.0,30.21,SW,219,0.0,0.0,80,0.00,,,0.00,WeatherTracker,2013-01-06 13:53:00,
2013-01-06 08:54:00,41.7,35.4,30.21,SW,219,1.0,0.0,78,0.00,,,0.00,WeatherTracker,2013-01-06 13:54:00,
2013-01-06 08:55:00,41.6,35.3,30.22,SW,219,1.0,0.0,78,0.00,,,0.00,WeatherTracker,2013-01-06 13:55:00,
2013-01-06 08:58:00,41.6,34.9,30.22,SW,219,1.0,0.0,77,0.00,,,0.00,WeatherTracker,2013-01-06 13:58:00,
2013-01-06 08:59:00,41.6,34.9,30.22,SW,219,0.0,0.0,77,0.00,,,0.00,WeatherTracker,2013-01-06 13:59:00,
2013-01-06 09:00:00,41.6,34.9,30.22,SW,230,0.0,0.0,77,0.00,,,0.00,WeatherTracker,2013-01-06 14:00:00,
2013-01-06 09:03:00,41.7,35.0,30.22,SW,230,1.0,0.0,77,0.00,,,0.00,WeatherTracker,2013-01-06 14:03:00,
2013-01-06 09:04:00,41.8,35.1,30.22,SW,230,0.0,0.0,77,0.00,,,0.00,WeatherTracker,2013-01-06 14:04:00,
2013-01-06 09:06:00,41.9,35.2,30.21,SW,230,1.0,0.0,77,0.00,,,0.00,WeatherTracker,2013-01-06 14:06:00,
2013-01-06 09:08:00,42.1,36.1,30.21,SW,230,0.0,0.0,79,0.00,,,0.00,WeatherTracker,2013-01-06 14:08:00,
2013-01-06 09:09:00,42.2,35.5,30.21,SW,230,2.0,0.0,77,0.00,,,0.00,WeatherTracker,2013-01-06 14:09:00,
2013-01-06 09:10:00,42.2,35.2,30.21,SW,230,0.0,0.0,76,0.00,,,0.00,WeatherTracker,2013-01-06 14:10:00,
2013-01-06 09:11:00,42.2,35.2,30.21,SW,230,1.0,0.0,76,0.00,,,0.00,WeatherTracker,2013-01-06 14:11:00,
2013-01-06 09:14:00,42.3,35.3,30.21,SW,230,1.0,0.0,76,0.00,,,0.00,WeatherTracker,2013-01-06 14:14:00,
2013-01-06 09:15:00,42.3,35.3,30.21,SW,230,0.0,0.0,76,0.00,,,0.00,WeatherTracker,2013-01-06 14:15:00,
2013-01-06 09:16:00,42.4,35.0,30.21,SW,230,1.0,0.0,75,0.00,,,0.00,WeatherTracker,2013-01-06 14:16:00,
2013-01-06 09:20:00,42.7,35.7,30.22,SW,230,2.0,0.0,76,0.00,,,0.00,WeatherTracker,2013-01-06 14:20:00,
2013-01-06 09:21:00,42.7,35.7,30.23,SW,230,1.0,0.0,76,0.00,,,0.00,WeatherTracker,2013-01-06 14:21:00,
2013-01-06 09:25:00,42.9,35.9,30.23,SW,230,3.0,0.0,76,0.00,,,0.00,WeatherTracker,2013-01-06 14:25:00,
2013-01-06 09:26:00,42.9,35.5,30.23,SW,230,1.0,0.0,75,0.00,,,0.00,WeatherTracker,2013-01-06 14:26:00,
2013-01-06 09:28:00,42.9,35.2,30.23,SW,230,2.0,0.0,74,0.00,,,0.00,WeatherTracker,2013-01-06 14:28:00,
2013-01-06 09:31:00,43.1,36.1,30.22,WSW,255,2.0,0.0,76,0.00,,,0.00,WeatherTracker,2013-01-06 14:31:00,
2013-01-06 09:32:00,43.2,35.5,30.22,West,265,1.0,0.0,74,0.00,,,0.00,WeatherTracker,2013-01-06 14:32:00,
2013-01-06 09:36:00,43.1,35.4,30.22,WSW,253,1.0,0.0,74,0.00,,,0.00,WeatherTracker,2013-01-06 14:36:00,
2013-01-06 09:37:00,43.2,35.8,30.22,WSW,253,0.0,0.0,75,0.00,,,0.00,WeatherTracker,2013-01-06 14:37:00,
2013-01-06 09:41:00,43.3,35.6,30.23,WSW,254,3.0,0.0,74,0.00,,,0.00,WeatherTracker,2013-01-06 14:41:00,
2013-01-06 09:42:00,43.3,35.6,30.22,SW,219,1.0,0.0,74,0.00,,,0.00,WeatherTracker,2013-01-06 14:42:00,
2013-01-06 09:47:00,43.4,35.7,30.21,West,264,0.0,0.0,74,0.00,,,0.00,WeatherTracker,2013-01-06 14:47:00,
2013-01-06 09:48:00,43.6,36.2,30.21,West,264,0.0,0.0,75,0.00,,,0.00,WeatherTracker,2013-01-06 14:48:00,
2013-01-06 09:52:00,43.9,35.8,30.22,West,264,2.0,0.0,73,0.00,,,0.00,WeatherTracker,2013-01-06 14:52:00,
2013-01-06 09:53:00,43.9,35.8,30.22,West,264,1.0,0.0,73,0.00,,,0.00,WeatherTracker,2013-01-06 14:53:00,
2013-01-06 09:57:00,43.8,35.7,30.22,West,264,1.0,0.0,73,0.00,,,0.00,WeatherTracker,2013-01-06 14:57:00,
2013-01-06 09:58:00,43.8,35.7,30.22,West,264,0.0,0.0,73,0.00,,,0.00,WeatherTracker,2013-01-06 14:58:00,
2013-01-06 09:59:00,43.9,36.2,30.22,West,264,2.0,0.0,74,0.00,,,0.00,WeatherTracker,2013-01-06 14:59:00,
2013-01-06 10:03:00,44.1,36.0,30.22,West,267,2.0,0.0,73,0.00,,,0.00,WeatherTracker,2013-01-06 15:03:00,
2013-01-06 10:04:00,44.2,36.1,30.22,West,267,1.0,0.0,73,0.00,,,0.00,WeatherTracker,2013-01-06 15:04:00,
2013-01-06 10:08:00,44.5,36.4,30.22,NW,312,2.0,0.0,73,0.00,,,0.00,WeatherTracker,2013-01-06 15:08:00,
2013-01-06 10:09:00,44.5,36.4,30.22,NW,312,2.0,0.0,73,0.00,,,0.00,WeatherTracker,2013-01-06 15:09:00,
2013-01-06 10:14:00,44.6,35.8,30.21,NW,311,1.0,0.0,71,0.00,,,0.00,WeatherTracker,2013-01-06 15:14:00,
2013-01-06 10:15:00,44.6,36.5,30.21,West,279,3.0,0.0,73,0.00,,,0.00,WeatherTracker,2013-01-06 15:15:00,
2013-01-06 10:19:00,44.7,36.2,30.21,NW,307,2.0,0.0,72,0.00,,,0.00,WeatherTracker,2013-01-06 15:19:00,
2013-01-06 10:20:00,44.8,36.0,30.22,WNW,300,4.0,0.0,71,0.00,,,0.00,WeatherTracker,2013-01-06 15:20:00,
2013-01-06 10:24:00,44.7,35.5,30.22,West,270,0.0,0.0,70,0.00,,,0.00,WeatherTracker,2013-01-06 15:24:00,
2013-01-06 10:25:00,44.8,36.3,30.22,West,270,1.0,0.0,72,0.00,,,0.00,WeatherTracker,2013-01-06 15:25:00,
2013-01-06 10:30:00,45.0,35.8,30.22,SW,227,0.0,0.0,70,0.00,,,0.00,WeatherTracker,2013-01-06 15:30:00,
2013-01-06 10:31:00,44.9,35.7,30.22,SW,227,0.0,0.0,70,0.00,,,0.00,WeatherTracker,2013-01-06 15:31:00,
2013-01-06 10:35:00,44.9,35.7,30.22,SW,227,0.0,0.0,70,0.00,,,0.00,WeatherTracker,2013-01-06 15:35:00,
2013-01-06 10:36:00,45.0,36.2,30.22,SW,227,0.0,0.0,71,0.00,,,0.00,WeatherTracker,2013-01-06 15:36:00,
2013-01-06 10:40:00,45.2,36.0,30.21,SW,227,1.0,0.0,70,0.00,,,0.00,WeatherTracker,2013-01-06 15:40:00,
2013-01-06 10:41:00,45.2,35.6,30.21,SW,227,2.0,0.0,69,0.00,,,0.00,WeatherTracker,2013-01-06 15:41:00,
2013-01-06 10:42:00,45.1,35.5,30.21,SW,227,1.0,0.0,69,0.00,,,0.00,WeatherTracker,2013-01-06 15:42:00,
2013-01-06 10:45:00,45.4,35.8,30.21,SW,227,0.0,0.0,69,0.00,,,0.00,WeatherTracker,2013-01-06 15:45:00,
2013-01-06 10:46:00,45.5,35.9,30.21,SW,227,1.0,0.0,69,0.00,,,0.00,WeatherTracker,2013-01-06 15:46:00,
2013-01-06 10:47:00,45.4,35.8,30.21,WSW,257,0.0,0.0,69,0.00,,,0.00,WeatherTracker,2013-01-06 15:47:00,
2013-01-06 10:48:00,45.3,35.7,30.21,WSW,257,1.0,0.0,69,0.00,,,0.00,WeatherTracker,2013-01-06 15:48:00,
2013-01-06 10:51:00,45.2,36.0,30.21,WSW,257,0.0,0.0,70,0.00,,,0.00,WeatherTracker,2013-01-06 15:51:00,
2013-01-06 10:53:00,45.4,35.8,30.22,WSW,257,0.0,0.0,69,0.00,,,0.00,WeatherTracker,2013-01-06 15:53:00,
2013-01-06 10:54:00,45.5,35.9,30.21,WSW,257,0.0,0.0,69,0.00,,,0.00,WeatherTracker,2013-01-06 15:54:00,
2013-01-06 10:57:00,45.5,35.9,30.21,WSW,254,1.0,0.0,69,0.00,,,0.00,WeatherTracker,2013-01-06 15:57:00,
2013-01-06 10:58:00,45.5,35.9,30.21,WSW,254,0.0,0.0,69,0.00,,,0.00,WeatherTracker,2013-01-06 15:58:00,
2013-01-06 10:59:00,45.6,36.0,30.21,WSW,254,0.0,0.0,69,0.00,,,0.00,WeatherTracker,2013-01-06 15:59:00,
2013-01-06 11:02:00,45.8,36.2,30.21,SSE,157,0.0,0.0,69,0.00,,,0.00,WeatherTracker,2013-01-06 16:02:00,
2013-01-06 11:04:00,45.8,36.2,30.21,SE,140,1.0,0.0,69,0.00,,,0.00,WeatherTracker,2013-01-06 16:04:00,
2013-01-06 11:05:00,45.8,35.8,30.21,SE,140,0.0,0.0,68,0.00,,,0.00,WeatherTracker,2013-01-06 16:05:00,
2013-01-06 11:07:00,45.8,35.8,30.20,SE,140,0.0,0.0,68,0.00,,,0.00,WeatherTracker,2013-01-06 16:07:00,
2013-01-06 11:09:00,46.0,36.0,30.20,SE,140,0.0,0.0,68,0.00,,,0.00,WeatherTracker,2013-01-06 16:09:00,
2013-01-06 11:10:00,46.0,36.0,30.20,SE,140,0.0,0.0,68,0.00,,,0.00,WeatherTracker,2013-01-06 16:10:00,
2013-01-06 11:11:00,46.0,36.4,30.20,South,190,1.0,0.0,69,0.00,,,0.00,WeatherTracker,2013-01-06 16:11:00,
2013-01-06 11:12:00,46.0,36.4,30.20,SSW,197,1.0,0.0,69,0.00,,,0.00,WeatherTracker,2013-01-06 16:12:00,
2013-01-06 11:14:00,46.2,36.6,30.20,SSW,197,0.0,0.0,69,0.00,,,0.00,WeatherTracker,2013-01-06 16:14:00,
2013-01-06 11:15:00,46.3,36.3,30.20,SSW,197,1.0,0.0,68,0.00,,,0.00,WeatherTracker,2013-01-06 16:15:00,
2013-01-06 11:16:00,46.4,36.8,30.20,SSW,197,0.0,0.0,69,0.00,,,0.00,WeatherTracker,2013-01-06 16:16:00,
2013-01-06 11:17:00,46.5,37.6,30.20,SSW,197,1.0,0.0,71,0.00,,,0.00,WeatherTracker,2013-01-06 16:17:00,
2013-01-06 11:19:00,46.5,36.5,30.20,SW,231,2.0,0.0,68,0.00,,,0.00,WeatherTracker,2013-01-06 16:19:00,
2013-01-06 11:22:00,46.2,35.9,30.20,WSW,242,1.0,0.0,67,0.00,,,0.00,WeatherTracker,2013-01-06 16:22:00,
2013-01-06 11:23:00,46.0,36.0,30.20,WSW,242,1.0,0.0,68,0.00,,,0.00,WeatherTracker,2013-01-06 16:23:00,
2013-01-06 11:25:00,45.8,35.8,30.20,WSW,242,0.0,0.0,68,0.00,,,0.00,WeatherTracker,2013-01-06 16:25:00,
2013-01-06 11:27:00,45.9,35.9,30.19,WSW,242,1.0,0.0,68,0.00,,,0.00,WeatherTracker,2013-01-06 16:27:00,
2013-01-06 11:29:00,46.1,36.1,30.19,WSW,242,0.0,0.0,68,0.00,,,0.00,WeatherTracker,2013-01-06 16:29:00,
2013-01-06 11:31:00,46.3,36.0,30.19,SW,232,0.0,0.0,67,0.00,,,0.00,WeatherTracker,2013-01-06 16:31:00,
2013-01-06 11:32:00,46.2,35.9,30.19,SW,232,0.0,0.0,67,0.00,,,0.00,WeatherTracker,2013-01-06 16:32:00,
2013-01-06 11:33:00,46.3,36.0,30.19,SW,232,0.0,0.0,67,0.00,,,0.00,WeatherTracker,2013-01-06 16:33:00,
2013-01-06 11:34:00,46.3,36.0,30.19,SW,232,0.0,0.0,67,0.00,,,0.00,WeatherTracker,2013-01-06 16:34:00,
2013-01-06 11:37:00,46.5,35.8,30.19,SW,232,0.0,0.0,66,0.00,,,0.00,WeatherTracker,2013-01-06 16:37:00,
2013-01-06 11:38:00,46.5,35.4,30.19,SW,232,0.0,0.0,65,0.00,,,0.00,WeatherTracker,2013-01-06 16:38:00,
2013-01-06 11:39:00,46.5,35.8,30.19,SW,232,0.0,0.0,66,0.00,,,0.00,WeatherTracker,2013-01-06 16:39:00,
2013-01-06 11:42:00,46.8,36.4,30.18,SW,232,2.0,0.0,67,0.00,,,0.00,WeatherTracker,2013-01-06 16:42:00,
2013-01-06 11:44:00,46.6,35.9,30.18,SW,232,1.0,0.0,66,0.00,,,0.00,WeatherTracker,2013-01-06 16:44:00,
2013-01-06 11:47:00,46.6,35.9,30.18,SW,232,2.0,0.0,66,0.00,,,0.00,WeatherTracker,2013-01-06 16:47:00,
2013-01-06 11:49:00,46.7,36.0,30.18,SW,232,0.0,0.0,66,0.00,,,0.00,WeatherTracker,2013-01-06 16:49:00,
2013-01-06 11:52:00,47.1,36.3,30.18,SW,232,1.0,0.0,66,0.00,,,0.00,WeatherTracker,2013-01-06 16:52:00,
2013-01-06 11:54:00,47.5,36.7,30.18,SSW,211,1.0,0.0,66,0.00,,,0.00,WeatherTracker,2013-01-06 16:54:00,
2013-01-06 11:55:00,47.5,36.7,30.18,SSE,161,2.0,0.0,66,0.00,,,0.00,WeatherTracker,2013-01-06 16:55:00,
2013-01-06 11:58:00,47.4,36.6,30.17,SSE,153,1.0,0.0,66,0.00,,,0.00,WeatherTracker,2013-01-06 16:58:00,
2013-01-06 12:00:00,47.7,36.5,30.17,SSE,153,2.0,0.0,65,0.00,,,0.00,WeatherTracker,2013-01-06 17:00:00,
2013-01-06 12:03:00,47.9,35.9,30.16,South,188,2.0,0.0,63,0.00,,,0.00,WeatherTracker,2013-01-06 17:03:00,
2013-01-06 12:05:00,47.9,35.9,30.16,SSE,150,2.0,0.0,63,0.00,,,0.00,WeatherTracker,2013-01-06 17:05:00,
2013-01-06 12:08:00,47.7,35.7,30.16,South,180,1.0,0.0,63,0.00,,,0.00,WeatherTracker,2013-01-06 17:08:00,
2013-01-06 12:10:00,47.8,35.8,30.16,South,180,0.0,0.0,63,0.00,,,0.00,WeatherTracker,2013-01-06 17:10:00,
2013-01-06 12:11:00,48.0,36.4,30.16,South,180,0.0,0.0,64,0.00,,,0.00,WeatherTracker,2013-01-06 17:11:00,
2013-01-06 12:14:00,48.1,36.1,30.16,South,180,1.0,0.0,63,0.00,,,0.00,WeatherTracker,2013-01-06 17:14:00,
2013-01-06 12:16:00,48.3,36.3,30.15,South,180,1.0,0.0,63,0.00,,,0.00,WeatherTracker,2013-01-06 17:16:00,
2013-01-06 12:17:00,48.3,36.3,30.15,West,278,2.0,0.0,63,0.00,,,0.00,WeatherTracker,2013-01-06 17:17:00,
2013-01-06 12:20:00,47.9,35.5,30.15,West,268,2.0,0.0,62,0.00,,,0.00,WeatherTracker,2013-01-06 17:20:00,
2013-01-06 12:21:00,47.8,35.4,30.15,West,268,3.0,0.0,62,0.00,,,0.00,WeatherTracker,2013-01-06 17:21:00,
2013-01-06 12:22:00,47.6,35.6,30.15,WSW,256,2.0,0.0,63,0.00,,,0.00,WeatherTracker,2013-01-06 17:22:00,
2013-01-06 12:26:00,47.6,36.0,30.15,WSW,256,0.0,0.0,64,0.00,,,0.00,WeatherTracker,2013-01-06 17:26:00,
2013-01-06 12:27:00,47.7,36.1,30.14,WSW,256,0.0,0.0,64,0.00,,,0.00,WeatherTracker,2013-01-06 17:27:00,
2013-01-06 12:28:00,48.0,36.0,30.15,WSW,258,2.0,0.0,63,0.00,,,0.00,WeatherTracker,2013-01-06 17:28:00,
2013-01-06 12:31:00,47.8,35.8,30.14,NW,306,0.0,0.0,63,0.00,,,0.00,WeatherTracker,2013-01-06 17:31:00,
2013-01-06 12:32:00,47.8,35.8,30.14,NW,309,1.0,0.0,63,0.00,,,0.00,WeatherTracker,2013-01-06 17:32:00,
2013-01-06 12:33:00,47.8,35.8,30.14,NW,317,1.0,0.0,63,0.00,,,0.00,WeatherTracker,2013-01-06 17:33:00,
2013-01-06 12:37:00,47.9,35.9,30.14,WNW,301,3.0,0.0,63,0.00,,,0.00,WeatherTracker,2013-01-06 17:37:00,
2013-01-06 12:38:00,47.8,35.8,30.14,WNW,301,2.0,0.0,63,0.00,,,0.00,WeatherTracker,2013-01-06 17:38:00,
2013-01-06 12:42:00,47.9,36.3,30.14,North,350,2.0,0.0,64,0.00,,,0.00,WeatherTracker,2013-01-06 17:42:00,
2013-01-06 12:43:00,47.9,35.9,30.14,North,360,2.0,0.0,63,0.00,,,0.00,WeatherTracker,2013-01-06 17:43:00,
2013-01-06 12:44:00,47.9,35.9,30.14,North,355,1.0,0.0,63,0.00,,,0.00,WeatherTracker,2013-01-06 17:44:00,
2013-01-06 12:47:00,48.1,36.1,30.14,North,355,0.0,0.0,63,0.00,,,0.00,WeatherTracker,2013-01-06 17:47:00,
2013-01-06 12:48:00,48.3,36.3,30.13,North,355,0.0,0.0,63,0.00,,,0.00,WeatherTracker,2013-01-06 17:48:00,
2013-01-06 12:49:00,48.5,36.1,30.13,North,355,0.0,0.0,62,0.00,,,0.00,WeatherTracker,2013-01-06 17:49:00,
2013-01-06 12:50:00,48.7,35.9,30.13,North,355,1.0,0.0,61,0.00,,,0.00,WeatherTracker,2013-01-06 17:50:00,
2013-01-06 12:53:00,48.5,35.7,30.13,NW,315,1.0,0.0,61,0.00,,,0.00,WeatherTracker,2013-01-06 17:53:00,
2013-01-06 12:54:00,48.5,35.7,30.13,WNW,303,2.0,0.0,61,0.00,,,0.00,WeatherTracker,2013-01-06 17:54:00,
2013-01-06 12:55:00,48.4,35.6,30.13,WNW,296,2.0,0.0,61,0.00,,,0.00,WeatherTracker,2013-01-06 17:55:00,
2013-01-06 12:58:00,48.3,35.9,30.13,SW,236,2.0,0.0,62,0.00,,,0.00,WeatherTracker,2013-01-06 17:58:00,
2013-01-06 12:59:00,48.5,36.1,30.13,WSW,248,2.0,0.0,62,0.00,,,0.00,WeatherTracker,2013-01-06 17:59:00,
2013-01-06 13:00:00,48.6,35.8,30.13,WNW,286,4.0,0.0,61,0.00,,,0.00,WeatherTracker,2013-01-06 18:00:00,
2013-01-06 13:01:00,48.5,35.7,30.12,WNW,288,3.0,0.0,61,0.00,,,0.00,WeatherTracker,2013-01-06 18:01:00,
2013-01-06 13:03:00,48.5,36.1,30.12,NNW,328,1.0,0.0,62,0.00,,,0.00,WeatherTracker,2013-01-06 18:03:00,
2013-01-06 13:05:00,48.7,36.3,30.12,NNW,333,2.0,0.0,62,0.00,,,0.00,WeatherTracker,2013-01-06 18:05:00,
2013-01-06 13:06:00,49.1,36.2,30.12,NNW,333,0.0,0.0,61,0.00,,,0.00,WeatherTracker,2013-01-06 18:06:00,
2013-01-06 13:08:00,49.2,35.5,30.12,NNE,16,2.0,0.0,59,0.00,,,0.00,WeatherTracker,2013-01-06 18:08:00,
2013-01-06 13:11:00,49.2,35.9,30.12,WNW,286,3.0,0.0,60,0.00,,,0.00,WeatherTracker,2013-01-06 18:11:00,
2013-01-06 13:12:00,49.3,36.0,30.12,West,259,0.0,0.0,60,0.00,,,0.00,WeatherTracker,2013-01-06 18:12:00,
2013-01-06 13:13:00,49.4,36.1,30.12,North,355,2.0,0.0,60,0.00,,,0.00,WeatherTracker,2013-01-06 18:13:00,
2013-01-06 13:16:00,49.4,35.7,30.12,West,281,4.0,0.0,59,0.00,,,0.00,WeatherTracker,2013-01-06 18:16:00,
2013-01-06 13:17:00,49.3,35.2,30.12,WSW,256,1.0,0.0,58,0.00,,,0.00,WeatherTracker,2013-01-06 18:17:00,
2013-01-06 13:19:00,49.6,35.9,30.12,SW,226,1.0,0.0,59,0.00,,,0.00,WeatherTracker,2013-01-06 18:19:00,
2013-01-06 13:21:00,49.9,36.1,30.11,North,11,3.0,0.0,59,0.00,,,0.00,WeatherTracker,2013-01-06 18:21:00,
2013-01-06 13:22:00,50.2,36.4,30.11,West,281,4.0,0.0,59,0.00,,,0.00,WeatherTracker,2013-01-06 18:22:00,
2013-01-06 13:24:00,50.2,35.6,30.11,WNW,302,3.0,0.0,57,0.00,,,0.00,WeatherTracker,2013-01-06 18:24:00,
2013-01-06 13:26:00,50.0,35.4,30.12,WNW,294,0.0,0.0,57,0.00,,,0.00,WeatherTracker,2013-01-06 18:26:00,
2013-01-06 13:27:00,50.2,36.0,30.12,North,355,2.0,0.0,58,0.00,,,0.00,WeatherTracker,2013-01-06 18:27:00,
2013-01-06 13:29:00,50.1,35.9,30.11,NE,40,2.0,0.0,58,0.00,,,0.00,WeatherTracker,2013-01-06 18:29:00,
2013-01-06 13:31:00,50.1,35.5,30.11,East,93,2.0,0.0,57,0.00,,,0.00,WeatherTracker,2013-01-06 18:31:00,
2013-01-06 13:32:00,49.9,35.3,30.12,ENE,78,2.0,0.0,57,0.00,,,0.00,WeatherTracker,2013-01-06 18:32:00,
2013-01-06 13:33:00,49.9,35.3,30.12,ENE,77,2.0,0.0,57,0.00,,,0.00,WeatherTracker,2013-01-06 18:33:00,
2013-01-06 13:34:00,50.0,35.8,30.12,ENE,77,0.0,0.0,58,0.00,,,0.00,WeatherTracker,2013-01-06 18:34:00,
2013-01-06 13:37:00,50.2,36.0,30.12,WNW,284,1.0,0.0,58,0.00,,,0.00,WeatherTracker,2013-01-06 18:37:00,
2013-01-06 13:38:00,50.2,36.0,30.12,WNW,284,0.0,0.0,58,0.00,,,0.00,WeatherTracker,2013-01-06 18:38:00,
2013-01-06 13:40:00,50.3,36.1,30.12,NW,309,2.0,0.0,58,0.00,,,0.00,WeatherTracker,2013-01-06 18:40:00,
2013-01-06 13:42:00,50.3,35.7,30.11,NW,316,3.0,0.0,57,0.00,,,0.00,WeatherTracker,2013-01-06 18:42:00,
2013-01-06 13:43:00,50.1,35.5,30.11,NNW,330,2.0,0.0,57,0.00,,,0.00,WeatherTracker,2013-01-06 18:43:00,
2013-01-06 13:45:00,50.1,35.9,30.11,NW,321,3.0,0.0,58,0.00,,,0.00,WeatherTracker,2013-01-06 18:45:00,
2013-01-06 13:47:00,50.3,36.1,30.11,NNW,336,3.0,0.0,58,0.00,,,0.00,WeatherTracker,2013-01-06 18:47:00,
2013-01-06 13:49:00,50.4,36.2,30.11,NNW,331,4.0,0.0,58,0.00,,,0.00,WeatherTracker,2013-01-06 18:49:00,
2013-01-06 13:50:00,50.4,36.2,30.11,NNW,344,3.0,0.0,58,0.00,,,0.00,WeatherTracker,2013-01-06 18:50:00,
2013-01-06 13:54:00,50.5,36.3,30.11,NW,311,4.0,0.0,58,0.00,,,0.00,WeatherTracker,2013-01-06 18:54:00,
2013-01-06 13:55:00,50.2,35.6,30.11,NW,318,2.0,0.0,57,0.00,,,0.00,WeatherTracker,2013-01-06 18:55:00,
2013-01-06 13:59:00,50.2,36.0,30.11,WSW,245,0.0,0.0,58,0.00,,,0.00,WeatherTracker,2013-01-06 18:59:00,
2013-01-06 14:01:00,50.7,36.0,30.10,WSW,238,0.0,0.0,57,0.00,,,0.00,WeatherTracker,2013-01-06 19:01:00,
2013-01-06 14:04:00,50.9,35.8,30.10,NW,311,3.0,0.0,56,0.00,,,0.00,WeatherTracker,2013-01-06 19:04:00,
2013-01-06 14:05:00,50.8,35.7,30.10,West,275,3.0,0.0,56,0.00,,,0.00,WeatherTracker,2013-01-06 19:05:00,
2013-01-06 14:06:00,50.6,35.5,30.10,West,261,1.0,0.0,56,0.00,,,0.00,WeatherTracker,2013-01-06 19:06:00,
2013-01-06 14:07:00,50.8,36.1,30.10,WNW,286,0.0,0.0,57,0.00,,,0.00,WeatherTracker,2013-01-06 19:07:00,
2013-01-06 14:10:00,51.2,36.5,30.10,NW,324,2.0,0.0,57,0.00,,,0.00,WeatherTracker,2013-01-06 19:10:00,
2013-01-06 14:12:00,51.5,36.8,30.10,NNE,32,3.0,0.0,57,0.00,,,0.00,WeatherTracker,2013-01-06 19:12:00,
2013-01-06 14:13:00,51.5,36.3,30.09,NNE,12,2.0,0.0,56,0.00,,,0.00,WeatherTracker,2013-01-06 19:13:00,
2013-01-06 14:15:00,51.3,36.6,30.09,NNE,18,0.0,0.0,57,0.00,,,0.00,WeatherTracker,2013-01-06 19:15:00,
2013-01-06 14:17:00,51.5,36.3,30.09,NNE,17,2.0,0.0,56,0.00,,,0.00,WeatherTracker,2013-01-06 19:17:00,
2013-01-06 14:18:00,51.5,36.3,30.09,NW,309,1.0,0.0,56,0.00,,,0.00,WeatherTracker,2013-01-06 19:18:00,
2013-01-06 14:21:00,51.3,36.1,30.09,NW,309,0.0,0.0,56,0.00,,,0.00,WeatherTracker,2013-01-06 19:21:00,
2013-01-06 14:22:00,51.3,36.1,30.09,East,89,2.0,0.0,56,0.00,,,0.00,WeatherTracker,2013-01-06 19:22:00,
2013-01-06 14:26:00,51.0,35.9,30.10,WNW,283,1.0,0.0,56,0.00,,,0.00,WeatherTracker,2013-01-06 19:26:00,
2013-01-06 14:27:00,51.1,36.0,30.10,WNW,283,1.0,0.0,56,0.00,,,0.00,WeatherTracker,2013-01-06 19:27:00,
2013-01-06 14:30:00,51.4,36.7,30.09,WNW,285,0.0,0.0,57,0.00,,,0.00,WeatherTracker,2013-01-06 19:30:00,
2013-01-06 14:32:00,51.9,36.7,30.09,WNW,285,0.0,0.0,56,0.00,,,0.00,WeatherTracker,2013-01-06 19:32:00,
2013-01-06 14:33:00,52.0,36.3,30.09,WNW,285,1.0,0.0,55,0.00,,,0.00,WeatherTracker,2013-01-06 19:33:00,
2013-01-06 14:35:00,52.1,36.0,30.09,WSW,257,0.0,0.0,54,0.00,,,0.00,WeatherTracker,2013-01-06 19:35:00,
2013-01-06 14:37:00,52.0,35.9,30.09,ESE,111,2.0,0.0,54,0.00,,,0.00,WeatherTracker,2013-01-06 19:37:00,
2013-01-06 14:38:00,51.9,35.8,30.09,East,96,2.0,0.0,54,0.00,,,0.00,WeatherTracker,2013-01-06 19:38:00,
2013-01-06 14:42:00,51.7,36.1,30.09,SE,144,0.0,0.0,55,0.00,,,0.00,WeatherTracker,2013-01-06 19:42:00,
2013-01-06 14:43:00,51.9,36.2,30.09,SSE,156,1.0,0.0,55,0.00,,,0.00,WeatherTracker,2013-01-06 19:43:00,
2013-01-06 14:47:00,51.7,35.6,30.09,ESE,121,3.0,0.0,54,0.00,,,0.00,WeatherTracker,2013-01-06 19:47:00,
2013-01-06 14:48:00,51.5,35.4,30.09,SE,125,1.0,0.0,54,0.00,,,0.00,WeatherTracker,2013-01-06 19:48:00,
2013-01-06 14:52:00,51.5,35.9,30.08,South,181,0.0,0.0,55,0.00,,,0.00,WeatherTracker,2013-01-06 19:52:00,
2013-01-06 14:53:00,51.6,36.0,30.08,South,184,1.0,0.0,55,0.00,,,0.00,WeatherTracker,2013-01-06 19:53:00,
2013-01-06 14:58:00,51.1,35.5,30.08,SSE,155,2.0,0.0,55,0.00,,,0.00,WeatherTracker,2013-01-06 19:58:00,
2013-01-06 15:03:00,51.0,35.9,30.08,ESE,116,0.0,0.0,56,0.00,,,0.00,WeatherTracker,2013-01-06 20:03:00,
2013-01-06 15:04:00,51.0,35.9,30.08,ESE,116,1.0,0.0,56,0.00,,,0.00,WeatherTracker,2013-01-06 20:04:00,
2013-01-06 15:08:00,51.1,36.0,30.08,SE,128,1.0,0.0,56,0.00,,,0.00,WeatherTracker,2013-01-06 20:08:00,
2013-01-06 15:09:00,51.0,35.9,30.08,SE,132,1.0,0.0,56,0.00,,,0.00,WeatherTracker,2013-01-06 20:09:00,
2013-01-06 15:11:00,50.9,35.8,30.08,SE,130,1.0,0.0,56,0.00,,,0.00,WeatherTracker,2013-01-06 20:11:00,
2013-01-06 15:13:00,50.9,35.8,30.08,ESE,113,2.0,0.0,56,0.00,,,0.00,WeatherTracker,2013-01-06 20:13:00,
2013-01-06 15:16:00,51.0,36.7,30.08,SE,128,4.0,0.0,58,0.00,,,0.00,WeatherTracker,2013-01-06 20:16:00,
2013-01-06 15:17:00,51.0,36.3,30.08,SE,135,4.0,0.0,57,0.00,,,0.00,WeatherTracker,2013-01-06 20:17:00,
2013-01-06 15:19:00,50.9,36.2,30.08,SE,130,1.0,0.0,57,0.00,,,0.00,WeatherTracker,2013-01-06 20:19:00,
2013-01-06 15:20:00,50.8,36.1,30.08,SE,130,1.0,0.0,57,0.00,,,0.00,WeatherTracker,2013-01-06 20:20:00,
2013-01-06 15:22:00,50.9,36.7,30.08,ESE,104,3.0,0.0,58,0.00,,,0.00,WeatherTracker,2013-01-06 20:22:00,
2013-01-06 15:25:00,51.3,37.0,30.08,East,93,0.0,0.0,58,0.00,,,0.00,WeatherTracker,2013-01-06 20:25:00,
2013-01-06 15:27:00,51.6,36.9,30.08,SSW,209,3.0,0.0,57,0.00,,,0.00,WeatherTracker,2013-01-06 20:27:00,
2013-01-06 15:28:00,51.6,36.9,30.08,South,184,4.0,0.0,57,0.00,,,0.00,WeatherTracker,2013-01-06 20:28:00,
2013-01-06 15:30:00,51.5,36.8,30.08,South,175,2.0,0.0,57,0.00,,,0.00,WeatherTracker,2013-01-06 20:30:00,
2013-01-06 15:31:00,51.5,37.2,30.08,South,175,1.0,0.0,58,0.00,,,0.00,WeatherTracker,2013-01-06 20:31:00,
2013-01-06 15:32:00,51.4,37.1,30.08,South,175,1.0,0.0,58,0.00,,,0.00,WeatherTracker,2013-01-06 20:32:00,
2013-01-06 15:33:00,51.5,37.2,30.08,South,176,0.0,0.0,58,0.00,,,0.00,WeatherTracker,2013-01-06 20:33:00,
2013-01-06 15:36:00,51.5,36.8,30.08,ESE,121,1.0,0.0,57,0.00,,,0.00,WeatherTracker,2013-01-06 20:36:00,
2013-01-06 15:37:00,51.3,37.0,30.08,South,180,2.0,0.0,58,0.00,,,0.00,WeatherTracker,2013-01-06 20:37:00,
2013-01-06 15:38:00,51.3,37.0,30.08,SSW,193,0.0,0.0,58,0.00,,,0.00,WeatherTracker,2013-01-06 20:38:00,
2013-01-06 15:41:00,50.8,36.6,30.08,ESE,122,4.0,0.0,58,0.00,,,0.00,WeatherTracker,2013-01-06 20:41:00,
2013-01-06 15:42:00,50.6,36.8,30.08,SE,128,3.0,0.0,59,0.00,,,0.00,WeatherTracker,2013-01-06 20:42:00,
2013-01-06 15:43:00,50.5,36.7,30.08,SE,136,1.0,0.0,59,0.00,,,0.00,WeatherTracker,2013-01-06 20:43:00,
2013-01-06 15:46:00,50.3,36.5,30.08,SE,132,2.0,0.0,59,0.00,,,0.00,WeatherTracker,2013-01-06 20:46:00,
2013-01-06 15:47:00,50.2,36.4,30.08,SE,129,3.0,0.0,59,0.00,,,0.00,WeatherTracker,2013-01-06 20:47:00,
2013-01-06 15:49:00,50.1,36.3,30.08,ESE,117,2.0,0.0,59,0.00,,,0.00,WeatherTracker,2013-01-06 20:49:00,
2013-01-06 15:52:00,50.0,36.7,30.09,ESE,115,0.0,0.0,60,0.00,,,0.00,WeatherTracker,2013-01-06 20:52:00,
2013-01-06 15:53:00,50.0,36.7,30.09,ESE,115,1.0,0.0,60,0.00,,,0.00,WeatherTracker,2013-01-06 20:53:00,
2013-01-06 15:54:00,50.0,36.7,30.09,ESE,115,1.0,0.0,60,0.00,,,0.00,WeatherTracker,2013-01-06 20:54:00,
2013-01-06 15:57:00,49.9,36.6,30.09,SE,135,2.0,0.0,60,0.00,,,0.00,WeatherTracker,2013-01-06 20:57:00,
2013-01-06 15:58:00,49.9,36.6,30.09,ESE,121,4.0,0.0,60,0.00,,,0.00,WeatherTracker,2013-01-06 20:58:00,
2013-01-06 15:59:00,49.8,36.5,30.09,SE,141,2.0,0.0,60,0.00,,,0.00,WeatherTracker,2013-01-06 20:59:00,
2013-01-06 16:00:00,49.7,36.4,30.09,SE,135,3.0,0.0,60,0.00,,,0.00,WeatherTracker,2013-01-06 21:00:00,
2013-01-06 16:02:00,49.7,36.8,30.08,SE,146,1.0,0.0,61,0.00,,,0.00,WeatherTracker,2013-01-06 21:02:00,
2013-01-06 16:04:00,49.8,36.9,30.09,SSE,167,0.0,0.0,61,0.00,,,0.00,WeatherTracker,2013-01-06 21:04:00,
2013-01-06 16:05:00,49.8,36.9,30.09,SSE,167,1.0,0.0,61,0.00,,,0.00,WeatherTracker,2013-01-06 21:05:00,
2013-01-06 16:06:00,49.9,37.0,30.09,SSE,167,1.0,0.0,61,0.00,,,0.00,WeatherTracker,2013-01-06 21:06:00,
2013-01-06 16:07:00,49.9,37.0,30.09,SSE,167,1.0,0.0,61,0.00,,,0.00,WeatherTracker,2013-01-06 21:07:00,
2013-01-06 16:09:00,50.0,37.1,30.09,SSE,167,1.0,0.0,61,0.00,,,0.00,WeatherTracker,2013-01-06 21:09:00,
2013-01-06 16:10:00,50.0,37.1,30.09,SSE,167,1.0,0.0,61,0.00,,,0.00,WeatherTracker,2013-01-06 21:10:00,
2013-01-06 16:11:00,49.9,37.0,30.09,ESE,120,2.0,0.0,61,0.00,,,0.00,WeatherTracker,2013-01-06 21:11:00,
2013-01-06 16:13:00,49.6,36.7,30.09,ESE,120,1.0,0.0,61,0.00,,,0.00,WeatherTracker,2013-01-06 21:13:00,
2013-01-06 16:15:00,49.5,37.0,30.09,ESE,121,2.0,0.0,62,0.00,,,0.00,WeatherTracker,2013-01-06 21:15:00,
2013-01-06 16:16:00,49.4,36.9,30.09,SE,134,1.0,0.0,62,0.00,,,0.00,WeatherTracker,2013-01-06 21:16:00,
2013-01-06 16:19:00,49.3,36.8,30.09,SE,136,3.0,0.0,62,0.00,,,0.00,WeatherTracker,2013-01-06 21:19:00,
2013-01-06 16:20:00,49.3,37.2,30.08,SE,126,2.0,0.0,63,0.00,,,0.00,WeatherTracker,2013-01-06 21:20:00,
2013-01-06 16:21:00,49.2,37.1,30.08,SE,126,2.0,0.0,63,0.00,,,0.00,WeatherTracker,2013-01-06 21:21:00,
2013-01-06 16:24:00,49.2,37.1,30.08,SE,125,2.0,0.0,63,0.00,,,0.00,WeatherTracker,2013-01-06 21:24:00,
2013-01-06 16:26:00,49.2,37.1,30.08,SE,140,1.0,0.0,63,0.00,,,0.00,WeatherTracker,2013-01-06 21:26:00,
2013-01-06 16:27:00,49.2,37.1,30.08,SE,140,0.0,0.0,63,0.00,,,0.00,WeatherTracker,2013-01-06 21:27:00,
2013-01-06 16:30:00,49.2,37.1,30.08,SSE,161,1.0,0.0,63,0.00,,,0.00,WeatherTracker,2013-01-06 21:30:00,
2013-01-06 16:31:00,49.2,37.5,30.08,SSE,161,1.0,0.0,64,0.00,,,0.00,WeatherTracker,2013-01-06 21:31:00,
2013-01-06 16:32:00,49.2,37.1,30.08,SSE,147,1.0,0.0,63,0.00,,,0.00,WeatherTracker,2013-01-06 21:32:00,
2013-01-06 16:33:00,49.2,37.1,30.08,SE,134,2.0,0.0,63,0.00,,,0.00,WeatherTracker,2013-01-06 21:33:00,
2013-01-06 16:35:00,49.1,37.5,30.08,SE,134,0.0,0.0,64,0.00,,,0.00,WeatherTracker,2013-01-06 21:35:00,
2013-01-06 16:36:00,49.1,37.5,30.08,SE,134,1.0,0.0,64,0.00,,,0.00,WeatherTracker,2013-01-06 21:36:00,
2013-01-06 16:37:00,49.1,37.5,30.08,ESE,102,1.0,0.0,64,0.00,,,0.00,WeatherTracker,2013-01-06 21:37:00,
2013-01-06 16:38:00,49.1,37.5,30.08,ESE,104,3.0,0.0,64,0.00,,,0.00,WeatherTracker,2013-01-06 21:38:00,
2013-01-06 16:40:00,49.1,37.5,30.08,ESE,104,1.0,0.0,64,0.00,,,0.00,WeatherTracker,2013-01-06 21:40:00,
2013-01-06 16:42:00,49.0,37.4,30.08,ESE,109,0.0,0.0,64,0.00,,,0.00,WeatherTracker,2013-01-06 21:42:00,
2013-01-06 16:44:00,49.0,37.4,30.08,ESE,109,1.0,0.0,64,0.00,,,0.00,WeatherTracker,2013-01-06 21:44:00,
2013-01-06 16:46:00,49.0,37.4,30.08,ESE,104,2.0,0.0,64,0.00,,,0.00,WeatherTracker,2013-01-06 21:46:00,
2013-01-06 16:47:00,48.9,37.3,30.08,ESE,105,2.0,0.0,64,0.00,,,0.00,WeatherTracker,2013-01-06 21:47:00,
2013-01-06 16:49:00,48.8,37.2,30.08,SE,137,2.0,0.0,64,0.00,,,0.00,WeatherTracker,2013-01-06 21:49:00,
2013-01-06 16:51:00,48.8,37.6,30.08,SE,137,2.0,0.0,65,0.00,,,0.00,WeatherTracker,2013-01-06 21:51:00,
2013-01-06 16:52:00,48.8,37.2,30.09,SE,137,2.0,0.0,64,0.00,,,0.00,WeatherTracker,2013-01-06 21:52:00,
2013-01-06 16:54:00,48.7,37.9,30.09,SE,137,0.0,0.0,66,0.00,,,0.00,WeatherTracker,2013-01-06 21:54:00,
2013-01-06 16:55:00,48.8,38.0,30.09,SE,137,0.0,0.0,66,0.00,,,0.00,WeatherTracker,2013-01-06 21:55:00,
2013-01-06 16:56:00,48.8,37.6,30.09,SE,137,1.0,0.0,65,0.00,,,0.00,WeatherTracker,2013-01-06 21:56:00,
2013-01-06 16:58:00,48.6,37.8,30.09,ESE,115,3.0,0.0,66,0.00,,,0.00,WeatherTracker,2013-01-06 21:58:00,
2013-01-06 16:59:00,48.5,37.7,30.09,ESE,121,2.0,0.0,66,0.00,,,0.00,WeatherTracker,2013-01-06 21:59:00,
2013-01-06 17:01:00,48.3,37.5,30.09,SE,134,3.0,0.0,66,0.00,,,0.00,WeatherTracker,2013-01-06 22:01:00,
2013-01-06 17:03:00,48.0,37.2,30.09,SE,132,4.0,0.0,66,0.00,,,0.00,WeatherTracker,2013-01-06 22:03:00,
2013-01-06 17:04:00,48.0,37.2,30.09,ESE,123,2.0,0.0,66,0.00,,,0.00,WeatherTracker,2013-01-06 22:04:00,
2013-01-06 17:06:00,47.9,37.1,30.09,SE,134,2.0,0.0,66,0.00,,,0.00,WeatherTracker,2013-01-06 22:06:00,
2013-01-06 17:09:00,47.7,37.3,30.09,ESE,119,2.0,0.0,67,0.00,,,0.00,WeatherTracker,2013-01-06 22:09:00,
2013-01-06 17:10:00,47.7,37.3,30.09,SSE,167,1.0,0.0,67,0.00,,,0.00,WeatherTracker,2013-01-06 22:10:00,
2013-01-06 17:12:00,47.7,37.3,30.09,SSE,167,0.0,0.0,67,0.00,,,0.00,WeatherTracker,2013-01-06 22:12:00,
2013-01-06 17:14:00,47.7,37.3,30.09,SSE,167,0.0,0.0,67,0.00,,,0.00,WeatherTracker,2013-01-06 22:14:00,
2013-01-06 17:16:00,47.6,37.2,30.09,SSE,167,0.0,0.0,67,0.00,,,0.00,WeatherTracker,2013-01-06 22:16:00,
2013-01-06 17:17:00,47.6,37.2,30.09,SSE,161,0.0,0.0,67,0.00,,,0.00,WeatherTracker,2013-01-06 22:17:00,
2013-01-06 17:20:00,47.5,37.1,30.09,SSE,161,0.0,0.0,67,0.00,,,0.00,WeatherTracker,2013-01-06 22:20:00,
2013-01-06 17:21:00,47.5,37.1,30.09,SSE,161,0.0,0.0,67,0.00,,,0.00,WeatherTracker,2013-01-06 22:21:00,
2013-01-06 17:23:00,47.3,36.9,30.09,SSE,161,1.0,0.0,67,0.00,,,0.00,WeatherTracker,2013-01-06 22:23:00,
2013-01-06 17:26:00,47.4,37.0,30.09,SSE,161,0.0,0.0,67,0.00,,,0.00,WeatherTracker,2013-01-06 22:26:00,
2013-01-06 17:28:00,47.4,37.0,30.09,SSE,161,0.0,0.0,67,0.00,,,0.00,WeatherTracker,2013-01-06 22:28:00,
2013-01-06 17:31:00,47.3,37.3,30.09,SSE,161,0.0,0.0,68,0.00,,,0.00,WeatherTracker,2013-01-06 22:31:00,
2013-01-06 17:32:00,47.2,37.2,30.09,SSE,161,0.0,0.0,68,0.00,,,0.00,WeatherTracker,2013-01-06 22:32:00,
2013-01-06 17:34:00,47.2,37.2,30.09,SSE,161,0.0,0.0,68,0.00,,,0.00,WeatherTracker,2013-01-06 22:34:00,
2013-01-06 17:36:00,47.2,37.2,30.09,SSE,161,1.0,0.0,68,0.00,,,0.00,WeatherTracker,2013-01-06 22:36:00,
2013-01-06 17:37:00,47.2,37.2,30.09,SSE,161,0.0,0.0,68,0.00,,,0.00,WeatherTracker,2013-01-06 22:37:00,
2013-01-06 17:40:00,47.1,37.1,30.09,SSE,161,0.0,0.0,68,0.00,,,0.00,WeatherTracker,2013-01-06 22:40:00,
2013-01-06 17:42:00,47.0,37.0,30.10,SSE,161,0.0,0.0,68,0.00,,,0.00,WeatherTracker,2013-01-06 22:42:00,
2013-01-06 17:45:00,46.8,37.2,30.10,SSE,161,0.0,0.0,69,0.00,,,0.00,WeatherTracker,2013-01-06 22:45:00,
2013-01-06 17:47:00,46.7,37.1,30.10,SSE,161,0.0,0.0,69,0.00,,,0.00,WeatherTracker,2013-01-06 22:47:00,
2013-01-06 17:51:00,46.5,36.9,30.10,SSE,161,0.0,0.0,69,0.00,,,0.00,WeatherTracker,2013-01-06 22:51:00,
2013-01-06 17:52:00,46.5,36.9,30.10,SSE,161,0.0,0.0,69,0.00,,,0.00,WeatherTracker,2013-01-06 22:52:00,
2013-01-06 17:53:00,46.5,36.9,30.10,SSE,161,0.0,0.0,69,0.00,,,0.00,WeatherTracker,2013-01-06 22:53:00,
2013-01-06 17:56:00,46.2,36.6,30.10,SSE,161,0.0,0.0,69,0.00,,,0.00,WeatherTracker,2013-01-06 22:56:00,
2013-01-06 17:58:00,45.9,36.7,30.10,SSE,161,0.0,0.0,70,0.00,,,0.00,WeatherTracker,2013-01-06 22:58:00,
2013-01-06 17:59:00,45.8,36.6,30.10,SSE,161,0.0,0.0,70,0.00,,,0.00,WeatherTracker,2013-01-06 22:59:00,
2013-01-06 18:01:00,45.7,36.8,30.11,SSE,161,0.0,0.0,71,0.00,,,0.00,WeatherTracker,2013-01-06 23:01:00,
2013-01-06 18:03:00,45.6,36.7,30.11,SSE,161,0.0,0.0,71,0.00,,,0.00,WeatherTracker,2013-01-06 23:03:00,
2013-01-06 18:04:00,45.6,36.7,30.11,SSE,161,0.0,0.0,71,0.00,,,0.00,WeatherTracker,2013-01-06 23:04:00,
2013-01-06 18:07:00,45.5,36.7,30.11,SSE,161,0.0,0.0,71,0.00,,,0.00,WeatherTracker,2013-01-06 23:07:00,
2013-01-06 18:09:00,45.5,36.7,30.11,SSE,161,0.0,0.0,71,0.00,,,0.00,WeatherTracker,2013-01-06 23:09:00,
2013-01-06 18:10:00,45.5,36.7,30.11,SSE,161,0.0,0.0,71,0.00,,,0.00,WeatherTracker,2013-01-06 23:10:00,
2013-01-06 18:12:00,45.4,36.6,30.11,SSE,161,0.0,0.0,71,0.00,,,0.00,WeatherTracker,2013-01-06 23:12:00,
2013-01-06 18:15:00,45.4,36.6,30.11,SSE,161,0.0,0.0,71,0.00,,,0.00,WeatherTracker,2013-01-06 23:15:00,
2013-01-06 18:17:00,45.4,36.6,30.10,SSE,161,0.0,0.0,71,0.00,,,0.00,WeatherTracker,2013-01-06 23:17:00,
2013-01-06 18:20:00,45.3,36.5,30.11,SSE,161,0.0,0.0,71,0.00,,,0.00,WeatherTracker,2013-01-06 23:20:00,
2013-01-06 18:21:00,45.2,36.4,30.11,SSE,161,0.0,0.0,71,0.00,,,0.00,WeatherTracker,2013-01-06 23:21:00,
2013-01-06 18:22:00,45.0,36.5,30.11,SSE,161,0.0,0.0,72,0.00,,,0.00,WeatherTracker,2013-01-06 23:22:00,
2013-01-06 18:25:00,44.2,36.1,30.11,SSE,161,0.0,0.0,73,0.00,,,0.00,WeatherTracker,2013-01-06 23:25:00,
2013-01-06 18:26:00,44.1,36.0,30.11,SSE,161,0.0,0.0,73,0.00,,,0.00,WeatherTracker,2013-01-06 23:26:00,
2013-01-06 18:27:00,43.8,36.1,30.11,SSE,161,1.0,0.0,74,0.00,,,0.00,WeatherTracker,2013-01-06 23:27:00,
2013-01-06 18:30:00,43.6,36.2,30.11,SSE,161,0.0,0.0,75,0.00,,,0.00,WeatherTracker,2013-01-06 23:30:00,
2013-01-06 18:31:00,43.6,36.2,30.11,SSE,161,0.0,0.0,75,0.00,,,0.00,WeatherTracker,2013-01-06 23:31:00,
2013-01-06 18:32:00,43.7,36.3,30.11,SSE,161,0.0,0.0,75,0.00,,,0.00,WeatherTracker,2013-01-06 23:32:00,
2013-01-06 18:33:00,43.8,36.4,30.11,SSE,161,0.0,0.0,75,0.00,,,0.00,WeatherTracker,2013-01-06 23:33:00,
2013-01-06 18:36:00,44.0,36.6,30.11,SSE,161,0.0,0.0,75,0.00,,,0.00,WeatherTracker,2013-01-06 23:36:00,
2013-01-06 18:37:00,44.0,36.3,30.11,SSE,161,0.0,0.0,74,0.00,,,0.00,WeatherTracker,2013-01-06 23:37:00,
2013-01-06 18:38:00,43.9,36.2,30.11,SSE,161,0.0,0.0,74,0.00,,,0.00,WeatherTracker,2013-01-06 23:38:00,
2013-01-06 18:41:00,43.2,35.8,30.11,SSE,161,0.0,0.0,75,0.00,,,0.00,WeatherTracker,2013-01-06 23:41:00,
2013-01-06 18:42:00,43.0,35.6,30.11,SSE,161,0.0,0.0,75,0.00,,,0.00,WeatherTracker,2013-01-06 23:42:00,
2013-01-06 18:44:00,42.5,35.5,30.11,SSE,161,0.0,0.0,76,0.00,,,0.00,WeatherTracker,2013-01-06 23:44:00,
2013-01-06 18:46:00,42.1,35.7,30.12,SSE,161,0.0,0.0,78,0.00,,,0.00,WeatherTracker,2013-01-06 23:46:00,
2013-01-06 18:47:00,42.0,35.6,30.12,SSE,161,0.0,0.0,78,0.00,,,0.00,WeatherTracker,2013-01-06 23:47:00,
2013-01-06 18:49:00,42.0,35.6,30.12,SSE,161,0.0,0.0,78,0.00,,,0.00,WeatherTracker,2013-01-06 23:49:00,
2013-01-06 18:51:00,41.9,35.5,30.12,SSE,161,0.0,0.0,78,0.00,,,0.00,WeatherTracker,2013-01-06 23:51:00,
2013-01-06 18:52:00,41.9,35.5,30.12,SSE,161,0.0,0.0,78,0.00,,,0.00,WeatherTracker,2013-01-06 23:52:00,
2013-01-06 18:54:00,42.0,35.6,30.12,SSE,161,0.0,0.0,78,0.00,,,0.00,WeatherTracker,2013-01-06 23:54:00,
2013-01-06 18:57:00,41.8,35.8,30.12,SSE,161,0.0,0.0,79,0.00,,,0.00,WeatherTracker,2013-01-06 23:57:00,
2013-01-06 18:58:00,41.8,35.8,30.12,SSE,161,0.0,0.0,79,0.00,,,0.00,WeatherTracker,2013-01-06 23:58:00,
2013-01-06 18:59:00,41.6,35.3,30.12,SSE,161,0.0,0.0,78,0.00,,,0.00,WeatherTracker,2013-01-06 23:59:00,
2013-01-06 19:00:00,41.5,35.5,30.12,SSE,161,0.0,0.0,79,0.00,,,0.00,WeatherTracker,2013-01-07 00:00:00,
2013-01-06 19:02:00,41.2,35.2,30.12,SSE,161,0.0,0.0,79,0.00,,,0.00,WeatherTracker,2013-01-07 00:02:00,
2013-01-06 19:04:00,41.1,35.4,30.12,SSE,161,0.0,0.0,80,0.00,,,0.00,WeatherTracker,2013-01-07 00:04:00,
2013-01-06 19:06:00,40.8,35.4,30.12,SSE,161,0.0,0.0,81,0.00,,,0.00,WeatherTracker,2013-01-07 00:06:00,
2013-01-06 19:07:00,40.8,35.4,30.13,SSE,161,0.0,0.0,81,0.00,,,0.00,WeatherTracker,2013-01-07 00:07:00,
2013-01-06 19:09:00,40.7,35.6,30.13,SSE,161,0.0,0.0,82,0.00,,,0.00,WeatherTracker,2013-01-07 00:09:00,
2013-01-06 19:10:00,40.7,35.6,30.13,SSE,161,0.0,0.0,82,0.00,,,0.00,WeatherTracker,2013-01-07 00:10:00,